Time,TemperatureF,DewpointF,PressureIn,WindDirection,WindDirectionDegrees,WindSpeedMPH,WindSpeedGustMPH,Humidity,HourlyPrecipIn,Conditions,Clouds,dailyrainin,SoftwareType,DateUTC
2013-03-10 00:01:00,38.3,33.3,29.74,North,32767,-999.0,-999.0,82,0.00,,,0.01,Wunderground v.1.15,2013-03-10 06:01:00,
2013-03-10 00:02:00,38.3,33.3,29.74,North,32767,-999.0,-999.0,82,0.00,,,0.01,Wunderground v.1.15,2013-03-10 06:02:00,
2013-03-10 00:06:00,38.5,33.8,29.74,North,32767,-999.0,-999.0,83,0.00,,,0.01,Wunderground v.1.15,2013-03-10 06:06:00,
2013-03-10 00:07:00,38.5,33.8,29.74,North,32767,-999.0,-999.0,83,0.00,,,0.01,Wunderground v.1.15,2013-03-10 06:07:00,
2013-03-10 00:12:00,38.5,33.8,29.73,North,32767,-999.0,-999.0,83,0.00,,,0.02,Wunderground v.1.15,2013-03-10 06:12:00,
2013-03-10 00:13:00,38.5,33.8,29.73,North,32767,-999.0,-999.0,83,0.00,,,0.02,Wunderground v.1.15,2013-03-10 06:13:00,
2013-03-10 00:17:00,38.6,33.9,29.73,North,32767,-999.0,-999.0,83,0.00,,,0.02,Wunderground v.1.15,2013-03-10 06:17:00,
2013-03-10 00:21:00,38.6,33.9,29.73,North,32767,-999.0,-999.0,83,0.00,,,0.02,Wunderground v.1.15,2013-03-10 06:21:00,
2013-03-10 00:23:00,38.8,34.1,29.73,North,32767,-999.0,-999.0,83,0.00,,,0.02,Wunderground v.1.15,2013-03-10 06:23:00,
2013-03-10 00:32:00,39.1,34.4,29.73,North,32767,-999.0,-999.0,83,0.00,,,0.02,Wunderground v.1.15,2013-03-10 06:32:00,
2013-03-10 00:33:00,39.1,34.1,29.73,North,32767,-999.0,-999.0,82,0.00,,,0.02,Wunderground v.1.15,2013-03-10 06:33:00,
2013-03-10 00:36:00,39.2,34.2,29.73,North,32767,-999.0,-999.0,82,0.00,,,0.02,Wunderground v.1.15,2013-03-10 06:36:00,
2013-03-10 00:37:00,39.3,34.3,29.73,North,32767,-999.0,-999.0,82,0.00,,,0.02,Wunderground v.1.15,2013-03-10 06:37:00,
2013-03-10 00:38:00,39.3,34.3,29.73,North,32767,-999.0,-999.0,82,0.00,,,0.02,Wunderground v.1.15,2013-03-10 06:38:00,
2013-03-10 00:42:00,39.3,34.0,29.72,North,32767,-999.0,-999.0,81,0.00,,,0.02,Wunderground v.1.15,2013-03-10 06:42:00,
2013-03-10 00:46:00,39.3,34.3,29.72,North,32767,-999.0,-999.0,82,0.00,,,0.02,Wunderground v.1.15,2013-03-10 06:46:00,
2013-03-10 00:47:00,39.3,34.0,29.72,North,32767,-999.0,-999.0,81,0.00,,,0.02,Wunderground v.1.15,2013-03-10 06:47:00,
2013-03-10 00:48:00,39.5,34.2,29.72,North,32767,-999.0,-999.0,81,0.00,,,0.02,Wunderground v.1.15,2013-03-10 06:48:00,
2013-03-10 00:53:00,39.5,34.2,29.72,North,32767,-999.0,-999.0,81,0.00,,,0.02,Wunderground v.1.15,2013-03-10 06:53:00,
2013-03-10 00:58:00,39.3,34.3,29.73,North,32767,-999.0,-999.0,82,0.00,,,0.02,Wunderground v.1.15,2013-03-10 06:58:00,
2013-03-10 01:01:00,39.2,34.2,29.73,North,32767,-999.0,-999.0,82,0.00,,,0.02,Wunderground v.1.15,2013-03-10 07:01:00,
2013-03-10 01:02:00,39.1,34.4,29.73,North,32767,-999.0,-999.0,83,0.00,,,0.02,Wunderground v.1.15,2013-03-10 07:02:00,
2013-03-10 01:07:00,38.9,34.5,29.73,North,32767,-999.0,-999.0,84,0.00,,,0.02,Wunderground v.1.15,2013-03-10 07:07:00,
2013-03-10 01:11:00,39.2,34.8,29.73,North,32767,-999.0,-999.0,84,0.00,,,0.02,Wunderground v.1.15,2013-03-10 07:11:00,
2013-03-10 01:12:00,39.2,34.8,29.73,North,32767,-999.0,-999.0,84,0.00,,,0.02,Wunderground v.1.15,2013-03-10 07:12:00,
2013-03-10 01:16:00,39.3,34.9,29.73,North,32767,-999.0,-999.0,84,0.00,,,0.02,Wunderground v.1.15,2013-03-10 07:16:00,
2013-03-10 01:18:00,39.3,34.9,29.73,North,32767,-999.0,-999.0,84,0.00,,,0.02,Wunderground v.1.15,2013-03-10 07:18:00,
2013-03-10 01:21:00,39.3,34.9,29.73,North,32767,-999.0,-999.0,84,0.00,,,0.02,Wunderground v.1.15,2013-03-10 07:21:00,
2013-03-10 01:23:00,39.5,35.1,29.73,North,32767,-999.0,-999.0,84,0.00,,,0.02,Wunderground v.1.15,2013-03-10 07:23:00,
2013-03-10 01:26:00,39.6,35.2,29.72,North,32767,-999.0,-999.0,84,0.00,,,0.02,Wunderground v.1.15,2013-03-10 07:26:00,
2013-03-10 01:28:00,39.8,35.1,29.72,North,32767,-999.0,-999.0,83,0.00,,,0.02,Wunderground v.1.15,2013-03-10 07:28:00,
2013-03-10 01:31:00,40.1,35.0,29.72,North,32767,-999.0,-999.0,82,0.00,,,0.02,Wunderground v.1.15,2013-03-10 07:31:00,
2013-03-10 01:32:00,40.2,35.1,29.72,North,32767,-999.0,-999.0,82,0.00,,,0.02,Wunderground v.1.15,2013-03-10 07:32:00,
2013-03-10 01:37:00,40.3,34.9,29.72,North,32767,-999.0,-999.0,81,0.00,,,0.02,Wunderground v.1.15,2013-03-10 07:37:00,
2013-03-10 01:38:00,40.3,34.9,29.72,North,32767,-999.0,-999.0,81,0.00,,,0.02,Wunderground v.1.15,2013-03-10 07:38:00,
2013-03-10 01:44:00,40.3,34.6,29.73,North,32767,-999.0,-999.0,80,0.00,,,0.03,Wunderground v.1.15,2013-03-10 07:44:00,
2013-03-10 01:47:00,40.3,34.6,29.73,North,32767,-999.0,-999.0,80,0.00,,,0.03,Wunderground v.1.15,2013-03-10 07:47:00,
2013-03-10 01:48:00,40.3,34.9,29.73,North,32767,-999.0,-999.0,81,0.00,,,0.03,Wunderground v.1.15,2013-03-10 07:48:00,
2013-03-10 01:51:00,40.5,35.1,29.73,North,32767,-999.0,-999.0,81,0.00,,,0.03,Wunderground v.1.15,2013-03-10 07:51:00,
2013-03-10 01:56:00,40.6,35.2,29.72,North,32767,-999.0,-999.0,81,0.00,,,0.03,Wunderground v.1.15,2013-03-10 07:56:00,
2013-03-10 01:58:00,40.6,35.2,29.72,North,32767,-999.0,-999.0,81,0.00,,,0.03,Wunderground v.1.15,2013-03-10 07:58:00,
2013-03-10 03:02:00,40.8,35.7,29.72,North,32767,-999.0,-999.0,82,0.04,,,0.04,Wunderground v.1.15,2013-03-10 08:02:00,
2013-03-10 03:03:00,40.8,35.7,29.72,North,32767,-999.0,-999.0,82,0.04,,,0.04,Wunderground v.1.15,2013-03-10 08:03:00,
2013-03-10 03:04:00,40.6,35.5,29.72,North,32767,-999.0,-999.0,82,0.04,,,0.04,Wunderground v.1.15,2013-03-10 08:04:00,
2013-03-10 03:08:00,40.6,35.8,29.72,North,32767,-999.0,-999.0,83,0.04,,,0.04,Wunderground v.1.15,2013-03-10 08:08:00,
2013-03-10 03:12:00,40.5,36.0,29.71,North,32767,-999.0,-999.0,84,0.05,,,0.05,Wunderground v.1.15,2013-03-10 08:12:00,
2013-03-10 03:13:00,40.3,35.8,29.71,North,32767,-999.0,-999.0,84,0.05,,,0.05,Wunderground v.1.15,2013-03-10 08:13:00,
2013-03-10 03:14:00,40.3,35.8,29.71,North,32767,-999.0,-999.0,84,0.05,,,0.05,Wunderground v.1.15,2013-03-10 08:14:00,
2013-03-10 03:17:00,40.1,36.0,29.71,North,32767,-999.0,-999.0,85,0.05,,,0.05,Wunderground v.1.15,2013-03-10 08:17:00,
2013-03-10 03:18:00,40.1,36.0,29.71,North,32767,-999.0,-999.0,85,0.05,,,0.05,Wunderground v.1.15,2013-03-10 08:18:00,
2013-03-10 03:22:00,40.1,36.2,29.71,North,32767,-999.0,-999.0,86,0.05,,,0.05,Wunderground v.1.15,2013-03-10 08:22:00,
2013-03-10 03:23:00,40.1,36.2,29.71,North,32767,-999.0,-999.0,86,0.05,,,0.05,Wunderground v.1.15,2013-03-10 08:23:00,
2013-03-10 03:28:00,40.1,36.2,29.70,North,32767,-999.0,-999.0,86,0.04,,,0.06,Wunderground v.1.15,2013-03-10 08:28:00,
2013-03-10 03:29:00,39.9,36.1,29.70,North,32767,-999.0,-999.0,86,0.04,,,0.06,Wunderground v.1.15,2013-03-10 08:29:00,
2013-03-10 03:33:00,39.9,36.1,29.70,North,32767,-999.0,-999.0,86,0.04,,,0.06,Wunderground v.1.15,2013-03-10 08:33:00,
2013-03-10 03:35:00,39.8,36.0,29.70,North,32767,-999.0,-999.0,86,0.04,,,0.06,Wunderground v.1.15,2013-03-10 08:35:00,
2013-03-10 03:38:00,39.9,36.3,29.70,North,32767,-999.0,-999.0,87,0.04,,,0.06,Wunderground v.1.15,2013-03-10 08:38:00,
2013-03-10 03:39:00,39.9,36.3,29.69,North,32767,-999.0,-999.0,87,0.04,,,0.06,Wunderground v.1.15,2013-03-10 08:39:00,
2013-03-10 03:42:00,40.1,36.5,29.69,North,32767,-999.0,-999.0,87,0.04,,,0.06,Wunderground v.1.15,2013-03-10 08:42:00,
2013-03-10 03:43:00,40.1,36.8,29.69,North,32767,-999.0,-999.0,88,0.04,,,0.06,Wunderground v.1.15,2013-03-10 08:43:00,
2013-03-10 03:44:00,40.1,36.8,29.69,North,32767,-999.0,-999.0,88,0.00,,,0.06,Wunderground v.1.15,2013-03-10 08:44:00,
2013-03-10 03:47:00,40.2,36.9,29.69,North,32767,-999.0,-999.0,88,0.00,,,0.06,Wunderground v.1.15,2013-03-10 08:47:00,
2013-03-10 03:48:00,40.2,36.9,29.69,North,32767,-999.0,-999.0,88,0.00,,,0.06,Wunderground v.1.15,2013-03-10 08:48:00,
2013-03-10 03:52:00,40.3,37.0,29.69,North,32767,-999.0,-999.0,88,0.00,,,0.06,Wunderground v.1.15,2013-03-10 08:52:00,
2013-03-10 03:53:00,40.2,36.9,29.69,North,32767,-999.0,-999.0,88,0.00,,,0.06,Wunderground v.1.15,2013-03-10 08:53:00,
2013-03-10 03:56:00,40.2,36.9,29.69,North,32767,-999.0,-999.0,88,0.00,,,0.06,Wunderground v.1.15,2013-03-10 08:56:00,
2013-03-10 03:58:00,40.3,37.3,29.69,North,32767,-999.0,-999.0,89,0.00,,,0.06,Wunderground v.1.15,2013-03-10 08:58:00,
2013-03-10 03:59:00,40.3,37.3,29.69,North,32767,-999.0,-999.0,89,0.00,,,0.06,Wunderground v.1.15,2013-03-10 08:59:00,
2013-03-10 04:03:00,40.3,37.3,29.69,North,32767,-999.0,-999.0,89,0.00,,,0.07,Wunderground v.1.15,2013-03-10 09:03:00,
2013-03-10 04:04:00,40.3,37.3,29.69,North,32767,-999.0,-999.0,89,0.00,,,0.07,Wunderground v.1.15,2013-03-10 09:04:00,
2013-03-10 04:05:00,40.3,37.6,29.69,North,32767,-999.0,-999.0,90,0.00,,,0.07,Wunderground v.1.15,2013-03-10 09:05:00,
2013-03-10 04:09:00,40.3,37.6,29.67,North,32767,-999.0,-999.0,90,0.11,,,0.08,Wunderground v.1.15,2013-03-10 09:09:00,
2013-03-10 04:12:00,40.3,37.9,29.67,North,32767,-999.0,-999.0,91,0.14,,,0.09,Wunderground v.1.15,2013-03-10 09:12:00,
2013-03-10 04:13:00,40.3,37.9,29.67,North,32767,-999.0,-999.0,91,0.14,,,0.09,Wunderground v.1.15,2013-03-10 09:13:00,
2013-03-10 04:17:00,40.3,37.9,29.67,North,32767,-999.0,-999.0,91,0.19,,,0.10,Wunderground v.1.15,2013-03-10 09:17:00,
2013-03-10 04:18:00,40.3,37.9,29.67,North,32767,-999.0,-999.0,91,0.13,,,0.10,Wunderground v.1.15,2013-03-10 09:18:00,
2013-03-10 04:19:00,40.3,37.9,29.67,North,32767,-999.0,-999.0,91,0.12,,,0.10,Wunderground v.1.15,2013-03-10 09:19:00,
2013-03-10 04:23:00,40.2,38.1,29.67,North,32767,-999.0,-999.0,92,0.12,,,0.11,Wunderground v.1.15,2013-03-10 09:23:00,
2013-03-10 04:24:00,40.2,38.1,29.66,North,32767,-999.0,-999.0,92,0.12,,,0.11,Wunderground v.1.15,2013-03-10 09:24:00,
2013-03-10 04:28:00,40.2,38.1,29.66,North,32767,-999.0,-999.0,92,0.07,,,0.11,Wunderground v.1.15,2013-03-10 09:28:00,
2013-03-10 04:32:00,40.2,38.1,29.66,North,32767,-999.0,-999.0,92,0.06,,,0.12,Wunderground v.1.15,2013-03-10 09:32:00,
2013-03-10 04:33:00,40.2,38.3,29.66,North,32767,-999.0,-999.0,93,0.06,,,0.12,Wunderground v.1.15,2013-03-10 09:33:00,
2013-03-10 04:34:00,40.2,38.3,29.66,North,32767,-999.0,-999.0,93,0.11,,,0.13,Wunderground v.1.15,2013-03-10 09:34:00,
2013-03-10 04:37:00,40.5,38.6,29.66,North,32767,-999.0,-999.0,93,0.11,,,0.13,Wunderground v.1.15,2013-03-10 09:37:00,
2013-03-10 04:39:00,40.3,38.4,29.67,North,32767,-999.0,-999.0,93,0.10,,,0.13,Wunderground v.1.15,2013-03-10 09:39:00,
2013-03-10 04:43:00,40.5,38.9,29.67,North,32767,-999.0,-999.0,94,0.06,,,0.13,Wunderground v.1.15,2013-03-10 09:43:00,
2013-03-10 04:47:00,40.5,38.9,29.67,North,32767,-999.0,-999.0,94,0.04,,,0.13,Wunderground v.1.15,2013-03-10 09:47:00,
2013-03-10 04:48:00,40.5,38.9,29.67,North,32767,-999.0,-999.0,94,0.04,,,0.13,Wunderground v.1.15,2013-03-10 09:48:00,
2013-03-10 04:49:00,40.5,38.9,29.67,North,32767,-999.0,-999.0,94,0.04,,,0.13,Wunderground v.1.15,2013-03-10 09:49:00,
2013-03-10 04:53:00,40.6,39.3,29.67,North,32767,-999.0,-999.0,95,0.00,,,0.13,Wunderground v.1.15,2013-03-10 09:53:00,
2013-03-10 04:54:00,40.6,39.3,29.67,North,32767,-999.0,-999.0,95,0.00,,,0.13,Wunderground v.1.15,2013-03-10 09:54:00,
2013-03-10 04:56:00,40.6,39.3,29.67,North,32767,-999.0,-999.0,95,0.00,,,0.13,Wunderground v.1.15,2013-03-10 09:56:00,
2013-03-10 04:59:00,40.6,39.3,29.67,North,32767,-999.0,-999.0,95,0.00,,,0.13,Wunderground v.1.15,2013-03-10 09:59:00,
2013-03-10 05:00:00,40.6,39.3,29.67,North,32767,-999.0,-999.0,95,0.00,,,0.13,Wunderground v.1.15,2013-03-10 10:00:00,
2013-03-10 05:02:00,40.6,39.3,29.67,North,32767,-999.0,-999.0,95,0.00,,,0.13,Wunderground v.1.15,2013-03-10 10:02:00,
2013-03-10 05:04:00,40.6,39.3,29.67,North,32767,-999.0,-999.0,95,0.00,,,0.13,Wunderground v.1.15,2013-03-10 10:04:00,
2013-03-10 05:07:00,40.8,39.5,29.67,North,32767,-999.0,-999.0,95,0.00,,,0.13,Wunderground v.1.15,2013-03-10 10:07:00,
2013-03-10 05:08:00,40.8,39.5,29.67,North,32767,-999.0,-999.0,95,0.00,,,0.13,Wunderground v.1.15,2013-03-10 10:08:00,
2013-03-10 05:09:00,40.8,39.7,29.67,North,32767,-999.0,-999.0,96,0.00,,,0.13,Wunderground v.1.15,2013-03-10 10:09:00,
2013-03-10 05:13:00,40.9,39.8,29.67,North,32767,-999.0,-999.0,96,0.00,,,0.13,Wunderground v.1.15,2013-03-10 10:13:00,
2013-03-10 05:14:00,41.1,40.0,29.67,North,32767,-999.0,-999.0,96,0.00,,,0.13,Wunderground v.1.15,2013-03-10 10:14:00,
2013-03-10 05:15:00,41.1,40.0,29.67,North,32767,-999.0,-999.0,96,0.00,,,0.13,Wunderground v.1.15,2013-03-10 10:15:00,
2013-03-10 05:18:00,41.1,40.0,29.67,North,32767,-999.0,-999.0,96,0.00,,,0.13,Wunderground v.1.15,2013-03-10 10:18:00,
2013-03-10 05:22:00,40.9,39.8,29.67,North,32767,-999.0,-999.0,96,0.00,,,0.13,Wunderground v.1.15,2013-03-10 10:22:00,
2013-03-10 05:23:00,40.8,39.7,29.67,North,32767,-999.0,-999.0,96,0.00,,,0.13,Wunderground v.1.15,2013-03-10 10:23:00,
2013-03-10 05:24:00,40.8,39.7,29.68,North,32767,-999.0,-999.0,96,0.00,,,0.13,Wunderground v.1.15,2013-03-10 10:24:00,
2013-03-10 05:27:00,40.8,39.7,29.68,North,32767,-999.0,-999.0,96,0.00,,,0.13,Wunderground v.1.15,2013-03-10 10:27:00,
2013-03-10 05:28:00,40.8,39.7,29.68,North,32767,-999.0,-999.0,96,0.00,,,0.13,Wunderground v.1.15,2013-03-10 10:28:00,
2013-03-10 05:29:00,40.8,39.7,29.68,North,32767,-999.0,-999.0,96,0.00,,,0.13,Wunderground v.1.15,2013-03-10 10:29:00,
2013-03-10 05:33:00,40.8,39.7,29.68,North,32767,-999.0,-999.0,96,0.00,,,0.13,Wunderground v.1.15,2013-03-10 10:33:00,
2013-03-10 05:34:00,40.8,39.7,29.68,North,32767,-999.0,-999.0,96,0.00,,,0.13,Wunderground v.1.15,2013-03-10 10:34:00,
2013-03-10 05:36:00,40.8,39.7,29.68,North,32767,-999.0,-999.0,96,0.00,,,0.13,Wunderground v.1.15,2013-03-10 10:36:00,
2013-03-10 05:39:00,40.8,39.7,29.68,North,32767,-999.0,-999.0,96,0.00,,,0.13,Wunderground v.1.15,2013-03-10 10:39:00,
2013-03-10 05:42:00,40.8,39.7,29.68,North,32767,-999.0,-999.0,96,0.00,,,0.13,Wunderground v.1.15,2013-03-10 10:42:00,
2013-03-10 05:43:00,40.8,39.7,29.68,North,32767,-999.0,-999.0,96,0.00,,,0.13,Wunderground v.1.15,2013-03-10 10:43:00,
2013-03-10 05:47:00,40.6,39.5,29.68,North,32767,-999.0,-999.0,96,0.00,,,0.13,Wunderground v.1.15,2013-03-10 10:47:00,
2013-03-10 05:48:00,40.8,40.0,29.68,North,32767,-999.0,-999.0,97,0.00,,,0.13,Wunderground v.1.15,2013-03-10 10:48:00,
2013-03-10 05:49:00,40.8,40.0,29.68,North,32767,-999.0,-999.0,97,0.00,,,0.13,Wunderground v.1.15,2013-03-10 10:49:00,
2013-03-10 05:52:00,40.9,40.1,29.68,North,32767,-999.0,-999.0,97,0.00,,,0.13,Wunderground v.1.15,2013-03-10 10:52:00,
2013-03-10 05:53:00,40.9,40.1,29.68,North,32767,-999.0,-999.0,97,0.00,,,0.13,Wunderground v.1.15,2013-03-10 10:53:00,
2013-03-10 05:54:00,40.9,40.1,29.67,North,32767,-999.0,-999.0,97,0.00,,,0.13,Wunderground v.1.15,2013-03-10 10:54:00,
2013-03-10 05:58:00,40.9,40.1,29.67,North,32767,-999.0,-999.0,97,0.00,,,0.13,Wunderground v.1.15,2013-03-10 10:58:00,
2013-03-10 06:02:00,40.9,40.1,29.67,North,32767,-999.0,-999.0,97,0.00,,,0.13,Wunderground v.1.15,2013-03-10 11:02:00,
2013-03-10 06:03:00,40.9,40.1,29.67,North,32767,-999.0,-999.0,97,0.00,,,0.13,Wunderground v.1.15,2013-03-10 11:03:00,
2013-03-10 06:07:00,41.1,40.3,29.67,North,32767,-999.0,-999.0,97,0.00,,,0.13,Wunderground v.1.15,2013-03-10 11:07:00,
2013-03-10 06:08:00,41.1,40.3,29.67,North,32767,-999.0,-999.0,97,0.00,,,0.13,Wunderground v.1.15,2013-03-10 11:08:00,
2013-03-10 06:11:00,41.1,40.3,29.67,North,32767,-999.0,-999.0,97,0.00,,,0.13,Wunderground v.1.15,2013-03-10 11:11:00,
2013-03-10 06:12:00,41.1,40.3,29.67,North,32767,-999.0,-999.0,97,0.00,,,0.13,Wunderground v.1.15,2013-03-10 11:12:00,
2013-03-10 06:13:00,41.1,40.3,29.67,North,32767,-999.0,-999.0,97,0.00,,,0.13,Wunderground v.1.15,2013-03-10 11:13:00,
2013-03-10 06:17:00,41.1,40.3,29.67,North,32767,-999.0,-999.0,97,0.00,,,0.13,Wunderground v.1.15,2013-03-10 11:17:00,
2013-03-10 06:18:00,41.1,40.3,29.67,North,32767,-999.0,-999.0,97,0.00,,,0.14,Wunderground v.1.15,2013-03-10 11:18:00,
2013-03-10 06:19:00,41.1,40.3,29.67,North,32767,-999.0,-999.0,97,0.00,,,0.14,Wunderground v.1.15,2013-03-10 11:19:00,
2013-03-10 06:23:00,41.1,40.3,29.67,North,32767,-999.0,-999.0,97,0.00,,,0.14,Wunderground v.1.15,2013-03-10 11:23:00,
2013-03-10 06:24:00,41.1,40.3,29.67,North,32767,-999.0,-999.0,97,0.00,,,0.14,Wunderground v.1.15,2013-03-10 11:24:00,
2013-03-10 06:27:00,41.1,40.3,29.68,North,32767,-999.0,-999.0,97,0.00,,,0.14,Wunderground v.1.15,2013-03-10 11:27:00,
2013-03-10 06:28:00,41.1,40.3,29.68,North,32767,-999.0,-999.0,97,0.00,,,0.14,Wunderground v.1.15,2013-03-10 11:28:00,
2013-03-10 06:31:00,41.1,40.3,29.68,North,32767,-999.0,-999.0,97,0.06,,,0.15,Wunderground v.1.15,2013-03-10 11:31:00,
2013-03-10 06:32:00,41.1,40.3,29.68,North,32767,-999.0,-999.0,97,0.06,,,0.15,Wunderground v.1.15,2013-03-10 11:32:00,
2013-03-10 06:33:00,41.1,40.3,29.68,North,32767,-999.0,-999.0,97,0.06,,,0.15,Wunderground v.1.15,2013-03-10 11:33:00,
2013-03-10 06:37:00,41.1,40.6,29.68,North,32767,-999.0,-999.0,98,0.06,,,0.15,Wunderground v.1.15,2013-03-10 11:37:00,
2013-03-10 06:38:00,40.9,40.4,29.68,North,32767,-999.0,-999.0,98,0.06,,,0.15,Wunderground v.1.15,2013-03-10 11:38:00,
2013-03-10 06:42:00,40.9,40.4,29.68,North,32767,-999.0,-999.0,98,0.04,,,0.15,Wunderground v.1.15,2013-03-10 11:42:00,
2013-03-10 06:43:00,40.9,40.4,29.68,North,32767,-999.0,-999.0,98,0.04,,,0.16,Wunderground v.1.15,2013-03-10 11:43:00,
2013-03-10 06:47:00,40.9,40.4,29.68,North,32767,-999.0,-999.0,98,0.04,,,0.16,Wunderground v.1.15,2013-03-10 11:47:00,
2013-03-10 06:48:00,40.9,40.4,29.68,North,32767,-999.0,-999.0,98,0.04,,,0.16,Wunderground v.1.15,2013-03-10 11:48:00,
2013-03-10 06:52:00,41.1,40.6,29.68,North,32767,-999.0,-999.0,98,0.08,,,0.17,Wunderground v.1.15,2013-03-10 11:52:00,
2013-03-10 06:54:00,41.1,40.6,29.68,North,32767,-999.0,-999.0,98,0.08,,,0.17,Wunderground v.1.15,2013-03-10 11:54:00,
2013-03-10 06:57:00,41.1,40.6,29.68,North,32767,-999.0,-999.0,98,0.08,,,0.17,Wunderground v.1.15,2013-03-10 11:57:00,
2013-03-10 06:58:00,41.1,40.6,29.68,North,32767,-999.0,-999.0,98,0.08,,,0.17,Wunderground v.1.15,2013-03-10 11:58:00,
2013-03-10 07:02:00,41.2,40.7,29.68,North,32767,-999.0,-999.0,98,0.07,,,0.18,Wunderground v.1.15,2013-03-10 12:02:00,
2013-03-10 07:03:00,41.2,40.7,29.68,North,32767,-999.0,-999.0,98,0.07,,,0.18,Wunderground v.1.15,2013-03-10 12:03:00,
2013-03-10 07:04:00,41.2,40.7,29.68,North,32767,-999.0,-999.0,98,0.07,,,0.18,Wunderground v.1.15,2013-03-10 12:04:00,
2013-03-10 07:08:00,41.3,40.8,29.68,North,32767,-999.0,-999.0,98,0.06,,,0.18,Wunderground v.1.15,2013-03-10 12:08:00,
2013-03-10 07:09:00,41.2,40.7,29.67,North,32767,-999.0,-999.0,98,0.06,,,0.18,Wunderground v.1.15,2013-03-10 12:09:00,
2013-03-10 07:13:00,41.2,40.7,29.67,North,32767,-999.0,-999.0,98,0.04,,,0.19,Wunderground v.1.15,2013-03-10 12:13:00,
2013-03-10 07:14:00,41.2,40.7,29.67,North,32767,-999.0,-999.0,98,0.04,,,0.19,Wunderground v.1.15,2013-03-10 12:14:00,
2013-03-10 07:19:00,41.1,40.6,29.67,North,32767,-999.0,-999.0,98,0.04,,,0.19,Wunderground v.1.15,2013-03-10 12:19:00,
2013-03-10 07:20:00,41.1,40.6,29.67,North,32767,-999.0,-999.0,98,0.04,,,0.19,Wunderground v.1.15,2013-03-10 12:20:00,
2013-03-10 07:23:00,41.2,40.7,29.67,North,32767,-999.0,-999.0,98,0.04,,,0.19,Wunderground v.1.15,2013-03-10 12:23:00,
2013-03-10 07:24:00,41.2,40.7,29.67,North,32767,-999.0,-999.0,98,0.05,,,0.19,Wunderground v.1.15,2013-03-10 12:24:00,
2013-03-10 07:27:00,41.2,40.7,29.67,North,32767,-999.0,-999.0,98,0.05,,,0.20,Wunderground v.1.15,2013-03-10 12:27:00,
2013-03-10 07:29:00,41.2,40.7,29.67,North,32767,-999.0,-999.0,98,0.05,,,0.20,Wunderground v.1.15,2013-03-10 12:29:00,
2013-03-10 07:32:00,41.2,40.7,29.67,North,32767,-999.0,-999.0,98,0.05,,,0.20,Wunderground v.1.15,2013-03-10 12:32:00,
2013-03-10 07:33:00,41.2,40.7,29.67,North,32767,-999.0,-999.0,98,0.05,,,0.20,Wunderground v.1.15,2013-03-10 12:33:00,
2013-03-10 07:34:00,41.1,40.6,29.67,North,32767,-999.0,-999.0,98,0.05,,,0.20,Wunderground v.1.15,2013-03-10 12:34:00,
2013-03-10 07:38:00,41.1,40.6,29.67,North,32767,-999.0,-999.0,98,0.04,,,0.21,Wunderground v.1.15,2013-03-10 12:38:00,
2013-03-10 07:39:00,41.1,40.6,29.67,North,32767,-999.0,-999.0,98,0.04,,,0.21,Wunderground v.1.15,2013-03-10 12:39:00,
2013-03-10 07:42:00,40.8,40.3,29.67,North,32767,-999.0,-999.0,98,0.04,,,0.21,Wunderground v.1.15,2013-03-10 12:42:00,
2013-03-10 07:43:00,40.8,40.3,29.67,North,32767,-999.0,-999.0,98,0.04,,,0.21,Wunderground v.1.15,2013-03-10 12:43:00,
2013-03-10 07:44:00,40.6,40.1,29.67,North,32767,-999.0,-999.0,98,0.10,,,0.22,Wunderground v.1.15,2013-03-10 12:44:00,
2013-03-10 07:47:00,40.6,40.1,29.67,North,32767,-999.0,-999.0,98,0.10,,,0.22,Wunderground v.1.15,2013-03-10 12:47:00,
2013-03-10 07:48:00,40.6,40.1,29.67,North,32767,-999.0,-999.0,98,0.10,,,0.22,Wunderground v.1.15,2013-03-10 12:48:00,
2013-03-10 07:50:00,40.6,40.1,29.67,North,32767,-999.0,-999.0,98,0.09,,,0.22,Wunderground v.1.15,2013-03-10 12:50:00,
2013-03-10 07:52:00,40.6,40.1,29.67,North,32767,-999.0,-999.0,98,0.07,,,0.22,Wunderground v.1.15,2013-03-10 12:52:00,
2013-03-10 07:54:00,40.6,40.1,29.67,North,32767,-999.0,-999.0,98,0.06,,,0.22,Wunderground v.1.15,2013-03-10 12:54:00,
2013-03-10 07:57:00,40.6,40.1,29.67,North,32767,-999.0,-999.0,98,0.05,,,0.22,Wunderground v.1.15,2013-03-10 12:57:00,
2013-03-10 07:58:00,40.6,40.1,29.67,North,32767,-999.0,-999.0,98,0.04,,,0.22,Wunderground v.1.15,2013-03-10 12:58:00,
2013-03-10 08:01:00,40.6,40.1,29.67,North,32767,-999.0,-999.0,98,0.00,,,0.22,Wunderground v.1.15,2013-03-10 13:01:00,
2013-03-10 08:02:00,40.6,40.1,29.67,North,32767,-999.0,-999.0,98,0.00,,,0.22,Wunderground v.1.15,2013-03-10 13:02:00,
2013-03-10 08:03:00,40.6,40.1,29.67,North,32767,-999.0,-999.0,98,0.00,,,0.22,Wunderground v.1.15,2013-03-10 13:03:00,
2013-03-10 08:07:00,40.5,40.0,29.67,North,32767,-999.0,-999.0,98,0.00,,,0.22,Wunderground v.1.15,2013-03-10 13:07:00,
2013-03-10 08:08:00,40.5,40.0,29.67,North,32767,-999.0,-999.0,98,0.00,,,0.22,Wunderground v.1.15,2013-03-10 13:08:00,
2013-03-10 08:09:00,40.5,40.0,29.65,North,32767,-999.0,-999.0,98,0.00,,,0.22,Wunderground v.1.15,2013-03-10 13:09:00,
2013-03-10 08:12:00,40.5,40.2,29.65,North,32767,-999.0,-999.0,99,0.00,,,0.22,Wunderground v.1.15,2013-03-10 13:12:00,
2013-03-10 08:14:00,40.6,40.3,29.65,North,32767,-999.0,-999.0,99,0.00,,,0.22,Wunderground v.1.15,2013-03-10 13:14:00,
2013-03-10 08:17:00,40.6,40.3,29.65,North,32767,-999.0,-999.0,99,0.00,,,0.22,Wunderground v.1.15,2013-03-10 13:17:00,
2013-03-10 08:19:00,40.6,40.3,29.65,North,32767,-999.0,-999.0,99,0.00,,,0.22,Wunderground v.1.15,2013-03-10 13:19:00,
2013-03-10 08:23:00,40.8,40.5,29.65,North,32767,-999.0,-999.0,99,0.00,,,0.22,Wunderground v.1.15,2013-03-10 13:23:00,
2013-03-10 08:27:00,41.1,40.8,29.64,North,32767,-999.0,-999.0,99,0.00,,,0.22,Wunderground v.1.15,2013-03-10 13:27:00,
2013-03-10 08:28:00,41.2,40.9,29.64,North,32767,-999.0,-999.0,99,0.00,,,0.22,Wunderground v.1.15,2013-03-10 13:28:00,
2013-03-10 08:29:00,41.2,40.9,29.64,North,32767,-999.0,-999.0,99,0.00,,,0.22,Wunderground v.1.15,2013-03-10 13:29:00,
2013-03-10 08:33:00,41.3,41.0,29.64,North,32767,-999.0,-999.0,99,0.00,,,0.22,Wunderground v.1.15,2013-03-10 13:33:00,
2013-03-10 08:34:00,41.2,40.9,29.64,North,32767,-999.0,-999.0,99,0.00,,,0.22,Wunderground v.1.15,2013-03-10 13:34:00,
2013-03-10 08:41:00,41.1,40.8,29.68,North,32767,-999.0,-999.0,99,0.00,,,0.23,Wunderground v.1.15,2013-03-10 13:41:00,
2013-03-10 08:42:00,41.1,40.8,29.68,North,32767,-999.0,-999.0,99,0.00,,,0.23,Wunderground v.1.15,2013-03-10 13:42:00,
2013-03-10 08:44:00,41.1,40.8,29.68,North,32767,-999.0,-999.0,99,0.00,,,0.23,Wunderground v.1.15,2013-03-10 13:44:00,
2013-03-10 08:47:00,40.9,40.6,29.68,North,32767,-999.0,-999.0,99,0.00,,,0.23,Wunderground v.1.15,2013-03-10 13:47:00,
2013-03-10 08:49:00,40.9,40.6,29.68,North,32767,-999.0,-999.0,99,0.08,,,0.24,Wunderground v.1.15,2013-03-10 13:49:00,
2013-03-10 08:52:00,40.9,40.6,29.68,North,32767,-999.0,-999.0,99,0.08,,,0.24,Wunderground v.1.15,2013-03-10 13:52:00,
2013-03-10 08:54:00,41.1,40.8,29.68,North,32767,-999.0,-999.0,99,0.08,,,0.24,Wunderground v.1.15,2013-03-10 13:54:00,
2013-03-10 08:57:00,41.2,40.9,29.70,North,32767,-999.0,-999.0,99,0.07,,,0.24,Wunderground v.1.15,2013-03-10 13:57:00,
2013-03-10 08:59:00,41.2,40.9,29.70,North,32767,-999.0,-999.0,99,0.06,,,0.24,Wunderground v.1.15,2013-03-10 13:59:00,
2013-03-10 09:01:00,41.2,40.9,29.70,North,32767,-999.0,-999.0,99,0.04,,,0.24,Wunderground v.1.15,2013-03-10 14:01:00,
2013-03-10 09:03:00,41.3,41.0,29.70,North,32767,-999.0,-999.0,99,0.04,,,0.24,Wunderground v.1.15,2013-03-10 14:03:00,
2013-03-10 09:04:00,41.3,41.0,29.70,North,32767,-999.0,-999.0,99,0.04,,,0.24,Wunderground v.1.15,2013-03-10 14:04:00,
2013-03-10 09:08:00,41.3,41.0,29.70,North,32767,-999.0,-999.0,99,0.00,,,0.24,Wunderground v.1.15,2013-03-10 14:08:00,
2013-03-10 09:09:00,41.2,40.9,29.70,North,32767,-999.0,-999.0,99,0.00,,,0.24,Wunderground v.1.15,2013-03-10 14:09:00,
2013-03-10 09:12:00,41.2,40.9,29.70,North,32767,-999.0,-999.0,99,0.00,,,0.24,Wunderground v.1.15,2013-03-10 14:12:00,
2013-03-10 09:13:00,41.3,41.0,29.70,North,32767,-999.0,-999.0,99,0.00,,,0.24,Wunderground v.1.15,2013-03-10 14:13:00,
2013-03-10 09:14:00,41.3,41.0,29.70,North,32767,-999.0,-999.0,99,0.00,,,0.24,Wunderground v.1.15,2013-03-10 14:14:00,
2013-03-10 09:17:00,41.3,41.0,29.70,North,32767,-999.0,-999.0,99,0.00,,,0.24,Wunderground v.1.15,2013-03-10 14:17:00,
2013-03-10 09:18:00,41.3,41.0,29.70,North,32767,-999.0,-999.0,99,0.00,,,0.24,Wunderground v.1.15,2013-03-10 14:18:00,
2013-03-10 09:19:00,41.3,41.0,29.70,North,32767,-999.0,-999.0,99,0.00,,,0.24,Wunderground v.1.15,2013-03-10 14:19:00,
2013-03-10 09:22:00,41.3,41.0,29.70,North,32767,-999.0,-999.0,99,0.00,,,0.24,Wunderground v.1.15,2013-03-10 14:22:00,
2013-03-10 09:23:00,41.5,41.2,29.70,North,32767,-999.0,-999.0,99,0.00,,,0.24,Wunderground v.1.15,2013-03-10 14:23:00,
2013-03-10 09:24:00,41.3,41.0,29.70,North,32767,-999.0,-999.0,99,0.00,,,0.24,Wunderground v.1.15,2013-03-10 14:24:00,
2013-03-10 09:25:00,41.3,41.0,29.70,North,32767,-999.0,-999.0,99,0.00,,,0.24,Wunderground v.1.15,2013-03-10 14:25:00,
2013-03-10 09:27:00,41.3,41.0,29.70,North,32767,-999.0,-999.0,99,0.00,,,0.25,Wunderground v.1.15,2013-03-10 14:27:00,
2013-03-10 09:29:00,41.3,41.0,29.70,North,32767,-999.0,-999.0,99,0.00,,,0.25,Wunderground v.1.15,2013-03-10 14:29:00,
2013-03-10 09:30:00,41.3,41.0,29.70,North,32767,-999.0,-999.0,99,0.00,,,0.25,Wunderground v.1.15,2013-03-10 14:30:00,
2013-03-10 09:32:00,41.3,41.0,29.70,North,32767,-999.0,-999.0,99,0.13,,,0.26,Wunderground v.1.15,2013-03-10 14:32:00,
2013-03-10 09:33:00,41.3,41.0,29.70,North,32767,-999.0,-999.0,99,0.13,,,0.26,Wunderground v.1.15,2013-03-10 14:33:00,
2013-03-10 09:34:00,41.3,41.0,29.70,North,32767,-999.0,-999.0,99,0.13,,,0.26,Wunderground v.1.15,2013-03-10 14:34:00,
2013-03-10 09:37:00,41.3,41.0,29.70,North,32767,-999.0,-999.0,99,0.09,,,0.27,Wunderground v.1.15,2013-03-10 14:37:00,
2013-03-10 09:38:00,41.3,41.0,29.70,North,32767,-999.0,-999.0,99,0.09,,,0.27,Wunderground v.1.15,2013-03-10 14:38:00,
2013-03-10 09:39:00,41.3,41.0,29.70,North,32767,-999.0,-999.0,99,0.09,,,0.27,Wunderground v.1.15,2013-03-10 14:39:00,
2013-03-10 09:42:00,41.3,41.0,29.70,North,32767,-999.0,-999.0,99,0.11,,,0.27,Wunderground v.1.15,2013-03-10 14:42:00,
2013-03-10 09:47:00,41.5,41.2,29.70,North,32767,-999.0,-999.0,99,0.11,,,0.28,Wunderground v.1.15,2013-03-10 14:47:00,
2013-03-10 09:49:00,41.3,41.0,29.70,North,32767,-999.0,-999.0,99,0.08,,,0.28,Wunderground v.1.15,2013-03-10 14:49:00,
2013-03-10 09:52:00,41.3,41.0,29.70,North,32767,-999.0,-999.0,99,0.06,,,0.28,Wunderground v.1.15,2013-03-10 14:52:00,
2013-03-10 09:53:00,41.3,41.0,29.70,North,32767,-999.0,-999.0,99,0.06,,,0.28,Wunderground v.1.15,2013-03-10 14:53:00,
2013-03-10 09:54:00,41.3,41.0,29.70,North,32767,-999.0,-999.0,99,0.05,,,0.28,Wunderground v.1.15,2013-03-10 14:54:00,
2013-03-10 09:57:00,41.3,41.0,29.70,North,32767,-999.0,-999.0,99,0.05,,,0.29,Wunderground v.1.15,2013-03-10 14:57:00,
2013-03-10 09:58:00,41.3,41.0,29.70,North,32767,-999.0,-999.0,99,0.05,,,0.29,Wunderground v.1.15,2013-03-10 14:58:00,
2013-03-10 09:59:00,41.5,41.2,29.70,North,32767,-999.0,-999.0,99,0.05,,,0.29,Wunderground v.1.15,2013-03-10 14:59:00,
2013-03-10 10:02:00,41.5,41.2,29.70,North,32767,-999.0,-999.0,99,0.05,,,0.29,Wunderground v.1.15,2013-03-10 15:02:00,
2013-03-10 10:04:00,41.5,41.2,29.70,North,32767,-999.0,-999.0,99,0.05,,,0.29,Wunderground v.1.15,2013-03-10 15:04:00,
2013-03-10 10:07:00,41.3,41.0,29.70,North,32767,-999.0,-999.0,99,0.05,,,0.29,Wunderground v.1.15,2013-03-10 15:07:00,
2013-03-10 10:08:00,41.3,41.0,29.70,North,32767,-999.0,-999.0,99,0.04,,,0.29,Wunderground v.1.15,2013-03-10 15:08:00,
2013-03-10 10:11:00,41.3,41.0,29.70,North,32767,-999.0,-999.0,99,0.04,,,0.30,Wunderground v.1.15,2013-03-10 15:11:00,
2013-03-10 10:13:00,41.3,41.0,29.70,North,32767,-999.0,-999.0,99,0.04,,,0.30,Wunderground v.1.15,2013-03-10 15:13:00,
2013-03-10 10:16:00,41.5,41.2,29.70,North,32767,-999.0,-999.0,99,0.04,,,0.30,Wunderground v.1.15,2013-03-10 15:16:00,
2013-03-10 10:17:00,41.5,41.2,29.70,North,32767,-999.0,-999.0,99,0.04,,,0.30,Wunderground v.1.15,2013-03-10 15:17:00,
2013-03-10 10:19:00,41.5,41.2,29.70,North,32767,-999.0,-999.0,99,0.04,,,0.30,Wunderground v.1.15,2013-03-10 15:19:00,
2013-03-10 10:22:00,41.5,41.2,29.70,North,32767,-999.0,-999.0,99,0.04,,,0.30,Wunderground v.1.15,2013-03-10 15:22:00,
2013-03-10 10:23:00,41.5,41.2,29.70,North,32767,-999.0,-999.0,99,0.04,,,0.30,Wunderground v.1.15,2013-03-10 15:23:00,
2013-03-10 10:24:00,41.5,41.2,29.70,North,32767,-999.0,-999.0,99,0.04,,,0.30,Wunderground v.1.15,2013-03-10 15:24:00,
2013-03-10 10:28:00,41.5,41.2,29.70,North,32767,-999.0,-999.0,99,0.00,,,0.30,Wunderground v.1.15,2013-03-10 15:28:00,
2013-03-10 10:29:00,41.5,41.2,29.70,North,32767,-999.0,-999.0,99,0.00,,,0.30,Wunderground v.1.15,2013-03-10 15:29:00,
2013-03-10 10:33:00,41.6,41.6,29.70,North,32767,-999.0,-999.0,100,0.00,,,0.30,Wunderground v.1.15,2013-03-10 15:33:00,
2013-03-10 10:34:00,41.6,41.6,29.70,North,32767,-999.0,-999.0,100,0.00,,,0.30,Wunderground v.1.15,2013-03-10 15:34:00,
2013-03-10 10:38:00,41.6,41.6,29.70,North,32767,-999.0,-999.0,100,0.00,,,0.30,Wunderground v.1.15,2013-03-10 15:38:00,
2013-03-10 10:42:00,41.8,41.8,29.70,North,32767,-999.0,-999.0,100,0.00,,,0.30,Wunderground v.1.15,2013-03-10 15:42:00,
2013-03-10 10:43:00,41.8,41.8,29.70,North,32767,-999.0,-999.0,100,0.00,,,0.30,Wunderground v.1.15,2013-03-10 15:43:00,
2013-03-10 10:44:00,41.8,41.8,29.70,North,32767,-999.0,-999.0,100,0.00,,,0.30,Wunderground v.1.15,2013-03-10 15:44:00,
2013-03-10 10:48:00,41.8,41.8,29.70,North,32767,-999.0,-999.0,100,0.00,,,0.30,Wunderground v.1.15,2013-03-10 15:48:00,
2013-03-10 10:49:00,41.8,41.8,29.70,North,32767,-999.0,-999.0,100,0.00,,,0.30,Wunderground v.1.15,2013-03-10 15:49:00,
2013-03-10 10:54:00,41.8,41.8,29.70,North,32767,-999.0,-999.0,100,0.00,,,0.30,Wunderground v.1.15,2013-03-10 15:54:00,
2013-03-10 10:57:00,41.8,41.8,29.71,North,32767,-999.0,-999.0,100,0.00,,,0.30,Wunderground v.1.15,2013-03-10 15:57:00,
2013-03-10 10:58:00,41.8,41.8,29.71,North,32767,-999.0,-999.0,100,0.00,,,0.30,Wunderground v.1.15,2013-03-10 15:58:00,
2013-03-10 10:59:00,41.8,41.8,29.71,North,32767,-999.0,-999.0,100,0.00,,,0.30,Wunderground v.1.15,2013-03-10 15:59:00,
2013-03-10 11:02:00,41.8,41.8,29.71,North,32767,-999.0,-999.0,100,0.00,,,0.30,Wunderground v.1.15,2013-03-10 16:02:00,
2013-03-10 11:04:00,41.8,41.8,29.71,North,32767,-999.0,-999.0,100,0.00,,,0.30,Wunderground v.1.15,2013-03-10 16:04:00,
2013-03-10 11:07:00,41.8,41.8,29.71,North,32767,-999.0,-999.0,100,0.00,,,0.30,Wunderground v.1.15,2013-03-10 16:07:00,
2013-03-10 11:08:00,41.8,41.8,29.71,North,32767,-999.0,-999.0,100,0.00,,,0.30,Wunderground v.1.15,2013-03-10 16:08:00,
2013-03-10 11:09:00,41.8,41.8,29.72,North,32767,-999.0,-999.0,100,0.00,,,0.30,Wunderground v.1.15,2013-03-10 16:09:00,
2013-03-10 11:12:00,41.9,41.9,29.72,North,32767,-999.0,-999.0,100,0.00,,,0.30,Wunderground v.1.15,2013-03-10 16:12:00,
2013-03-10 11:13:00,41.9,41.9,29.72,North,32767,-999.0,-999.0,100,0.00,,,0.30,Wunderground v.1.15,2013-03-10 16:13:00,
2013-03-10 11:14:00,41.9,41.9,29.72,North,32767,-999.0,-999.0,100,0.00,,,0.30,Wunderground v.1.15,2013-03-10 16:14:00,
2013-03-10 11:17:00,41.9,41.9,29.72,North,32767,-999.0,-999.0,100,0.00,,,0.30,Wunderground v.1.15,2013-03-10 16:17:00,
2013-03-10 11:19:00,41.9,41.9,29.72,North,32767,-999.0,-999.0,100,0.00,,,0.30,Wunderground v.1.15,2013-03-10 16:19:00,
2013-03-10 11:22:00,41.9,41.9,29.72,North,32767,-999.0,-999.0,100,0.00,,,0.30,Wunderground v.1.15,2013-03-10 16:22:00,
2013-03-10 11:24:00,41.9,41.9,29.73,North,32767,-999.0,-999.0,100,0.00,,,0.30,Wunderground v.1.15,2013-03-10 16:24:00,
2013-03-10 11:27:00,41.9,41.9,29.73,North,32767,-999.0,-999.0,100,0.00,,,0.30,Wunderground v.1.15,2013-03-10 16:27:00,
2013-03-10 11:28:00,41.9,41.9,29.73,North,32767,-999.0,-999.0,100,0.00,,,0.30,Wunderground v.1.15,2013-03-10 16:28:00,
2013-03-10 11:32:00,41.9,41.9,29.73,North,32767,-999.0,-999.0,100,0.00,,,0.30,Wunderground v.1.15,2013-03-10 16:32:00,
2013-03-10 11:33:00,41.9,41.9,29.73,North,32767,-999.0,-999.0,100,0.00,,,0.30,Wunderground v.1.15,2013-03-10 16:33:00,
2013-03-10 11:34:00,41.9,41.9,29.73,North,32767,-999.0,-999.0,100,0.00,,,0.30,Wunderground v.1.15,2013-03-10 16:34:00,
2013-03-10 11:37:00,41.9,41.9,29.73,North,32767,-999.0,-999.0,100,0.00,,,0.30,Wunderground v.1.15,2013-03-10 16:37:00,
2013-03-10 11:39:00,41.9,41.9,29.72,North,32767,-999.0,-999.0,100,0.00,,,0.30,Wunderground v.1.15,2013-03-10 16:39:00,
2013-03-10 11:42:00,41.9,41.9,29.72,North,32767,-999.0,-999.0,100,0.00,,,0.30,Wunderground v.1.15,2013-03-10 16:42:00,
2013-03-10 11:44:00,42.1,42.1,29.72,North,32767,-999.0,-999.0,100,0.00,,,0.30,Wunderground v.1.15,2013-03-10 16:44:00,
2013-03-10 11:45:00,42.1,42.1,29.72,North,32767,-999.0,-999.0,100,0.00,,,0.30,Wunderground v.1.15,2013-03-10 16:45:00,
2013-03-10 11:47:00,42.1,42.1,29.72,North,32767,-999.0,-999.0,100,0.00,,,0.30,Wunderground v.1.15,2013-03-10 16:47:00,
2013-03-10 11:52:00,42.1,42.1,29.72,North,32767,-999.0,-999.0,100,0.00,,,0.31,Wunderground v.1.15,2013-03-10 16:52:00,
2013-03-10 11:53:00,42.1,42.1,29.72,North,32767,-999.0,-999.0,100,0.00,,,0.31,Wunderground v.1.15,2013-03-10 16:53:00,
2013-03-10 11:57:00,42.1,42.1,29.72,North,32767,-999.0,-999.0,100,0.00,,,0.31,Wunderground v.1.15,2013-03-10 16:57:00,
2013-03-10 11:58:00,42.1,42.1,29.72,North,32767,-999.0,-999.0,100,0.00,,,0.31,Wunderground v.1.15,2013-03-10 16:58:00,
2013-03-10 11:59:00,42.1,42.1,29.72,North,32767,-999.0,-999.0,100,0.00,,,0.31,Wunderground v.1.15,2013-03-10 16:59:00,
2013-03-10 12:02:00,42.2,42.2,29.72,North,32767,-999.0,-999.0,100,0.00,,,0.31,Wunderground v.1.15,2013-03-10 17:02:00,
2013-03-10 12:04:00,42.2,42.2,29.72,North,32767,-999.0,-999.0,100,0.00,,,0.31,Wunderground v.1.15,2013-03-10 17:04:00,
2013-03-10 12:07:00,42.3,42.3,29.72,North,32767,-999.0,-999.0,100,0.00,,,0.31,Wunderground v.1.15,2013-03-10 17:07:00,
2013-03-10 12:10:00,42.5,42.5,29.70,North,32767,-999.0,-999.0,100,0.00,,,0.31,Wunderground v.1.15,2013-03-10 17:10:00,
2013-03-10 12:11:00,42.5,42.5,29.70,North,32767,-999.0,-999.0,100,0.00,,,0.31,Wunderground v.1.15,2013-03-10 17:11:00,
2013-03-10 12:12:00,42.6,42.6,29.70,North,32767,-999.0,-999.0,100,0.00,,,0.31,Wunderground v.1.15,2013-03-10 17:12:00,
2013-03-10 12:15:00,42.9,42.9,29.70,North,32767,-999.0,-999.0,100,0.00,,,0.31,Wunderground v.1.15,2013-03-10 17:15:00,
2013-03-10 12:17:00,43.1,43.1,29.70,North,32767,-999.0,-999.0,100,0.00,,,0.31,Wunderground v.1.15,2013-03-10 17:17:00,
2013-03-10 12:18:00,43.1,43.1,29.70,North,32767,-999.0,-999.0,100,0.00,,,0.31,Wunderground v.1.15,2013-03-10 17:18:00,
2013-03-10 12:22:00,43.5,43.5,29.70,North,32767,-999.0,-999.0,100,0.00,,,0.31,Wunderground v.1.15,2013-03-10 17:22:00,
2013-03-10 12:23:00,43.5,43.5,29.70,North,32767,-999.0,-999.0,100,0.00,,,0.31,Wunderground v.1.15,2013-03-10 17:23:00,
2013-03-10 12:28:00,43.8,43.8,29.68,North,32767,-999.0,-999.0,100,0.00,,,0.31,Wunderground v.1.15,2013-03-10 17:28:00,
2013-03-10 12:29:00,43.9,43.9,29.68,North,32767,-999.0,-999.0,100,0.00,,,0.31,Wunderground v.1.15,2013-03-10 17:29:00,
2013-03-10 12:33:00,44.1,44.1,29.68,North,32767,-999.0,-999.0,100,0.00,,,0.31,Wunderground v.1.15,2013-03-10 17:33:00,
2013-03-10 12:34:00,44.1,44.1,29.68,North,32767,-999.0,-999.0,100,0.00,,,0.31,Wunderground v.1.15,2013-03-10 17:34:00,
2013-03-10 12:35:00,44.1,44.1,29.68,North,32767,-999.0,-999.0,100,0.00,,,0.31,Wunderground v.1.15,2013-03-10 17:35:00,
2013-03-10 12:42:00,44.2,44.2,29.68,North,32767,-999.0,-999.0,100,0.00,,,0.31,Wunderground v.1.15,2013-03-10 17:42:00,
2013-03-10 12:43:00,44.2,44.2,29.68,North,32767,-999.0,-999.0,100,0.00,,,0.31,Wunderground v.1.15,2013-03-10 17:43:00,
2013-03-10 12:47:00,44.3,44.3,29.68,North,32767,-999.0,-999.0,100,0.00,,,0.31,Wunderground v.1.15,2013-03-10 17:47:00,
2013-03-10 12:48:00,44.3,44.3,29.68,North,32767,-999.0,-999.0,100,0.00,,,0.31,Wunderground v.1.15,2013-03-10 17:48:00,
2013-03-10 12:49:00,44.3,44.3,29.68,North,32767,-999.0,-999.0,100,0.00,,,0.31,Wunderground v.1.15,2013-03-10 17:49:00,
2013-03-10 12:53:00,44.5,44.5,29.68,North,32767,-999.0,-999.0,100,0.00,,,0.31,Wunderground v.1.15,2013-03-10 17:53:00,
2013-03-10 12:54:00,44.5,44.5,29.69,North,32767,-999.0,-999.0,100,0.00,,,0.31,Wunderground v.1.15,2013-03-10 17:54:00,
2013-03-10 12:57:00,44.5,44.5,29.69,North,32767,-999.0,-999.0,100,0.00,,,0.31,Wunderground v.1.15,2013-03-10 17:57:00,
2013-03-10 12:58:00,44.5,44.5,29.69,North,32767,-999.0,-999.0,100,0.00,,,0.31,Wunderground v.1.15,2013-03-10 17:58:00,
2013-03-10 12:59:00,44.3,44.3,29.69,North,32767,-999.0,-999.0,100,0.00,,,0.31,Wunderground v.1.15,2013-03-10 17:59:00,
2013-03-10 13:03:00,44.3,44.3,29.69,North,32767,-999.0,-999.0,100,0.00,,,0.31,Wunderground v.1.15,2013-03-10 18:03:00,
2013-03-10 13:08:00,44.3,44.3,29.69,North,32767,-999.0,-999.0,100,0.00,,,0.31,Wunderground v.1.15,2013-03-10 18:08:00,
2013-03-10 13:09:00,44.3,44.3,29.69,North,32767,-999.0,-999.0,100,0.00,,,0.31,Wunderground v.1.15,2013-03-10 18:09:00,
2013-03-10 13:10:00,44.3,44.3,29.70,North,32767,-999.0,-999.0,100,0.00,,,0.31,Wunderground v.1.15,2013-03-10 18:10:00,
2013-03-10 13:17:00,43.9,43.9,29.70,North,32767,-999.0,-999.0,100,0.00,,,0.31,Wunderground v.1.15,2013-03-10 18:17:00,
2013-03-10 13:22:00,43.9,43.9,29.70,North,32767,-999.0,-999.0,100,0.00,,,0.31,Wunderground v.1.15,2013-03-10 18:22:00,
2013-03-10 13:23:00,43.8,43.8,29.70,North,32767,-999.0,-999.0,100,0.00,,,0.31,Wunderground v.1.15,2013-03-10 18:23:00,
2013-03-10 13:28:00,43.3,43.3,29.69,North,32767,-999.0,-999.0,100,0.00,,,0.31,Wunderground v.1.15,2013-03-10 18:28:00,
2013-03-10 13:29:00,43.3,43.3,29.69,North,32767,-999.0,-999.0,100,0.00,,,0.31,Wunderground v.1.15,2013-03-10 18:29:00,
2013-03-10 13:33:00,43.1,43.1,29.69,North,32767,-999.0,-999.0,100,0.00,,,0.31,Wunderground v.1.15,2013-03-10 18:33:00,
2013-03-10 13:37:00,42.9,42.9,29.69,North,32767,-999.0,-999.0,100,0.00,,,0.31,Wunderground v.1.15,2013-03-10 18:37:00,
2013-03-10 13:38:00,42.9,42.9,29.69,North,32767,-999.0,-999.0,100,0.00,,,0.31,Wunderground v.1.15,2013-03-10 18:38:00,
2013-03-10 13:39:00,42.9,42.9,29.70,North,32767,-999.0,-999.0,100,0.00,,,0.31,Wunderground v.1.15,2013-03-10 18:39:00,
2013-03-10 13:43:00,42.6,42.6,29.70,North,32767,-999.0,-999.0,100,0.00,,,0.31,Wunderground v.1.15,2013-03-10 18:43:00,
2013-03-10 13:47:00,42.6,42.6,29.70,North,32767,-999.0,-999.0,100,0.00,,,0.32,Wunderground v.1.15,2013-03-10 18:47:00,
2013-03-10 13:50:00,42.5,42.5,29.70,North,32767,-999.0,-999.0,100,0.00,,,0.32,Wunderground v.1.15,2013-03-10 18:50:00,
2013-03-10 13:52:00,42.3,42.3,29.70,North,32767,-999.0,-999.0,100,0.08,,,0.33,Wunderground v.1.15,2013-03-10 18:52:00,
2013-03-10 13:53:00,42.3,42.3,29.70,North,32767,-999.0,-999.0,100,0.08,,,0.33,Wunderground v.1.15,2013-03-10 18:53:00,
2013-03-10 13:57:00,42.5,42.5,29.71,North,32767,-999.0,-999.0,100,0.12,,,0.34,Wunderground v.1.15,2013-03-10 18:57:00,
2013-03-10 13:58:00,42.5,42.5,29.71,North,32767,-999.0,-999.0,100,0.12,,,0.34,Wunderground v.1.15,2013-03-10 18:58:00,
2013-03-10 14:02:00,42.6,42.6,29.71,North,32767,-999.0,-999.0,100,0.12,,,0.35,Wunderground v.1.15,2013-03-10 19:02:00,
2013-03-10 14:03:00,42.6,42.6,29.71,North,32767,-999.0,-999.0,100,0.12,,,0.35,Wunderground v.1.15,2013-03-10 19:03:00,
2013-03-10 14:04:00,42.6,42.6,29.71,North,32767,-999.0,-999.0,100,0.12,,,0.35,Wunderground v.1.15,2013-03-10 19:04:00,
2013-03-10 14:07:00,42.6,42.6,29.71,North,32767,-999.0,-999.0,100,0.15,,,0.36,Wunderground v.1.15,2013-03-10 19:07:00,
2013-03-10 14:08:00,42.6,42.6,29.71,North,32767,-999.0,-999.0,100,0.15,,,0.36,Wunderground v.1.15,2013-03-10 19:08:00,
2013-03-10 14:13:00,42.6,42.6,29.69,North,32767,-999.0,-999.0,100,0.08,,,0.36,Wunderground v.1.15,2013-03-10 19:13:00,
2013-03-10 14:14:00,42.6,42.6,29.69,North,32767,-999.0,-999.0,100,0.08,,,0.37,Wunderground v.1.15,2013-03-10 19:14:00,
2013-03-10 14:17:00,42.6,42.6,29.69,North,32767,-999.0,-999.0,100,0.08,,,0.37,Wunderground v.1.15,2013-03-10 19:17:00,
2013-03-10 14:18:00,42.6,42.6,29.69,North,32767,-999.0,-999.0,100,0.08,,,0.37,Wunderground v.1.15,2013-03-10 19:18:00,
2013-03-10 14:19:00,42.6,42.6,29.69,North,32767,-999.0,-999.0,100,0.11,,,0.38,Wunderground v.1.15,2013-03-10 19:19:00,
2013-03-10 14:23:00,42.5,42.5,29.69,North,32767,-999.0,-999.0,100,0.11,,,0.38,Wunderground v.1.15,2013-03-10 19:23:00,
2013-03-10 14:24:00,42.5,42.5,29.68,North,32767,-999.0,-999.0,100,0.11,,,0.38,Wunderground v.1.15,2013-03-10 19:24:00,
2013-03-10 14:28:00,42.5,42.5,29.68,North,32767,-999.0,-999.0,100,0.06,,,0.38,Wunderground v.1.15,2013-03-10 19:28:00,
2013-03-10 14:29:00,42.5,42.5,29.68,North,32767,-999.0,-999.0,100,0.05,,,0.38,Wunderground v.1.15,2013-03-10 19:29:00,
2013-03-10 14:30:00,42.3,42.3,29.68,North,32767,-999.0,-999.0,100,0.05,,,0.38,Wunderground v.1.15,2013-03-10 19:30:00,
2013-03-10 14:31:00,42.3,42.3,29.68,North,32767,-999.0,-999.0,100,0.05,,,0.39,Wunderground v.1.15,2013-03-10 19:31:00,
2013-03-10 14:34:00,42.3,42.3,29.68,North,32767,-999.0,-999.0,100,0.05,,,0.39,Wunderground v.1.15,2013-03-10 19:34:00,
2013-03-10 14:37:00,42.2,42.2,29.68,North,32767,-999.0,-999.0,100,0.13,,,0.40,Wunderground v.1.15,2013-03-10 19:37:00,
2013-03-10 14:39:00,42.2,42.2,29.68,North,32767,-999.0,-999.0,100,0.13,,,0.40,Wunderground v.1.15,2013-03-10 19:39:00,
2013-03-10 14:41:00,42.1,42.1,29.66,North,32767,-999.0,-999.0,100,0.09,,,0.40,Wunderground v.1.15,2013-03-10 19:41:00,
2013-03-10 14:42:00,42.1,42.1,29.66,North,32767,-999.0,-999.0,100,0.08,,,0.40,Wunderground v.1.15,2013-03-10 19:42:00,
2013-03-10 14:45:00,42.1,42.1,29.66,North,32767,-999.0,-999.0,100,0.06,,,0.40,Wunderground v.1.15,2013-03-10 19:45:00,
2013-03-10 14:47:00,41.9,41.9,29.66,North,32767,-999.0,-999.0,100,0.05,,,0.41,Wunderground v.1.15,2013-03-10 19:47:00,
2013-03-10 14:49:00,41.8,41.8,29.66,North,32767,-999.0,-999.0,100,0.05,,,0.41,Wunderground v.1.15,2013-03-10 19:49:00,
2013-03-10 14:52:00,41.8,41.8,29.66,North,32767,-999.0,-999.0,100,0.05,,,0.41,Wunderground v.1.15,2013-03-10 19:52:00,
2013-03-10 14:53:00,41.8,41.8,29.66,North,32767,-999.0,-999.0,100,0.05,,,0.41,Wunderground v.1.15,2013-03-10 19:53:00,
2013-03-10 14:57:00,41.8,41.8,29.65,North,32767,-999.0,-999.0,100,0.05,,,0.41,Wunderground v.1.15,2013-03-10 19:57:00,
2013-03-10 14:58:00,41.8,41.8,29.65,North,32767,-999.0,-999.0,100,0.05,,,0.41,Wunderground v.1.15,2013-03-10 19:58:00,
2013-03-10 15:00:00,41.6,41.6,29.65,North,32767,-999.0,-999.0,100,0.04,,,0.41,Wunderground v.1.15,2013-03-10 20:00:00,
2013-03-10 15:02:00,41.6,41.6,29.65,North,32767,-999.0,-999.0,100,0.04,,,0.41,Wunderground v.1.15,2013-03-10 20:02:00,
2013-03-10 15:03:00,41.6,41.6,29.65,North,32767,-999.0,-999.0,100,0.04,,,0.41,Wunderground v.1.15,2013-03-10 20:03:00,
2013-03-10 15:07:00,41.3,41.3,29.65,North,32767,-999.0,-999.0,100,0.00,,,0.41,Wunderground v.1.15,2013-03-10 20:07:00,
2013-03-10 15:08:00,41.3,41.3,29.65,North,32767,-999.0,-999.0,100,0.00,,,0.41,Wunderground v.1.15,2013-03-10 20:08:00,
2013-03-10 15:12:00,41.2,41.2,29.65,North,32767,-999.0,-999.0,100,0.00,,,0.41,Wunderground v.1.15,2013-03-10 20:12:00,
2013-03-10 15:13:00,41.2,41.2,29.65,North,32767,-999.0,-999.0,100,0.00,,,0.41,Wunderground v.1.15,2013-03-10 20:13:00,
2013-03-10 15:17:00,41.1,41.1,29.65,North,32767,-999.0,-999.0,100,0.00,,,0.41,Wunderground v.1.15,2013-03-10 20:17:00,
2013-03-10 15:18:00,41.1,41.1,29.65,North,32767,-999.0,-999.0,100,0.00,,,0.41,Wunderground v.1.15,2013-03-10 20:18:00,
2013-03-10 15:19:00,40.9,40.9,29.65,North,32767,-999.0,-999.0,100,0.00,,,0.41,Wunderground v.1.15,2013-03-10 20:19:00,
2013-03-10 15:22:00,40.9,40.9,29.65,North,32767,-999.0,-999.0,100,0.00,,,0.41,Wunderground v.1.15,2013-03-10 20:22:00,
2013-03-10 15:23:00,40.9,40.9,29.65,North,32767,-999.0,-999.0,100,0.00,,,0.41,Wunderground v.1.15,2013-03-10 20:23:00,
2013-03-10 15:24:00,40.9,40.9,29.66,North,32767,-999.0,-999.0,100,0.00,,,0.41,Wunderground v.1.15,2013-03-10 20:24:00,
2013-03-10 15:28:00,40.8,40.8,29.66,North,32767,-999.0,-999.0,100,0.00,,,0.41,Wunderground v.1.15,2013-03-10 20:28:00,
2013-03-10 15:31:00,40.6,40.6,29.66,North,32767,-999.0,-999.0,100,0.00,,,0.41,Wunderground v.1.15,2013-03-10 20:31:00,
2013-03-10 15:32:00,40.6,40.6,29.66,North,32767,-999.0,-999.0,100,0.00,,,0.42,Wunderground v.1.15,2013-03-10 20:32:00,
2013-03-10 15:37:00,40.6,40.6,29.66,North,32767,-999.0,-999.0,100,0.00,,,0.42,Wunderground v.1.15,2013-03-10 20:37:00,
2013-03-10 15:38:00,40.6,40.6,29.66,North,32767,-999.0,-999.0,100,0.00,,,0.42,Wunderground v.1.15,2013-03-10 20:38:00,
2013-03-10 15:42:00,40.6,40.6,29.65,North,32767,-999.0,-999.0,100,0.00,,,0.42,Wunderground v.1.15,2013-03-10 20:42:00,
2013-03-10 15:43:00,40.6,40.6,29.65,North,32767,-999.0,-999.0,100,0.00,,,0.42,Wunderground v.1.15,2013-03-10 20:43:00,
2013-03-10 15:44:00,40.5,40.5,29.65,North,32767,-999.0,-999.0,100,0.00,,,0.42,Wunderground v.1.15,2013-03-10 20:44:00,
2013-03-10 15:47:00,40.5,40.5,29.65,North,32767,-999.0,-999.0,100,0.00,,,0.42,Wunderground v.1.15,2013-03-10 20:47:00,
2013-03-10 15:48:00,40.5,40.5,29.65,North,32767,-999.0,-999.0,100,0.00,,,0.42,Wunderground v.1.15,2013-03-10 20:48:00,
2013-03-10 15:52:00,40.3,40.3,29.65,North,32767,-999.0,-999.0,100,0.00,,,0.42,Wunderground v.1.15,2013-03-10 20:52:00,
2013-03-10 15:53:00,40.3,40.3,29.65,North,32767,-999.0,-999.0,100,0.00,,,0.42,Wunderground v.1.15,2013-03-10 20:53:00,
2013-03-10 15:54:00,40.3,40.3,29.65,North,32767,-999.0,-999.0,100,0.00,,,0.42,Wunderground v.1.15,2013-03-10 20:54:00,
2013-03-10 15:58:00,40.3,40.3,29.65,North,32767,-999.0,-999.0,100,0.00,,,0.42,Wunderground v.1.15,2013-03-10 20:58:00,
2013-03-10 15:59:00,40.2,40.2,29.65,North,32767,-999.0,-999.0,100,0.00,,,0.42,Wunderground v.1.15,2013-03-10 20:59:00,
2013-03-10 16:03:00,40.1,40.1,29.65,North,32767,-999.0,-999.0,100,0.00,,,0.42,Wunderground v.1.15,2013-03-10 21:03:00,
2013-03-10 16:04:00,40.1,40.1,29.65,North,32767,-999.0,-999.0,100,0.00,,,0.42,Wunderground v.1.15,2013-03-10 21:04:00,
2013-03-10 16:07:00,40.1,40.1,29.65,North,32767,-999.0,-999.0,100,0.00,,,0.43,Wunderground v.1.15,2013-03-10 21:07:00,
2013-03-10 16:08:00,39.9,39.9,29.65,North,32767,-999.0,-999.0,100,0.00,,,0.43,Wunderground v.1.15,2013-03-10 21:08:00,
2013-03-10 16:12:00,40.1,40.1,29.64,North,32767,-999.0,-999.0,100,0.00,,,0.43,Wunderground v.1.15,2013-03-10 21:12:00,
2013-03-10 16:14:00,39.9,39.9,29.64,North,32767,-999.0,-999.0,100,0.00,,,0.43,Wunderground v.1.15,2013-03-10 21:14:00,
2013-03-10 16:17:00,39.9,39.9,29.64,North,32767,-999.0,-999.0,100,0.00,,,0.43,Wunderground v.1.15,2013-03-10 21:17:00,
2013-03-10 16:18:00,39.9,39.9,29.64,North,32767,-999.0,-999.0,100,0.00,,,0.43,Wunderground v.1.15,2013-03-10 21:18:00,
2013-03-10 16:19:00,39.9,39.9,29.64,North,32767,-999.0,-999.0,100,0.00,,,0.43,Wunderground v.1.15,2013-03-10 21:19:00,
2013-03-10 16:22:00,39.8,39.8,29.64,North,32767,-999.0,-999.0,100,0.05,,,0.44,Wunderground v.1.15,2013-03-10 21:22:00,
2013-03-10 16:23:00,39.8,39.8,29.64,North,32767,-999.0,-999.0,100,0.05,,,0.44,Wunderground v.1.15,2013-03-10 21:23:00,
2013-03-10 16:24:00,39.8,39.8,29.63,North,32767,-999.0,-999.0,100,0.05,,,0.44,Wunderground v.1.15,2013-03-10 21:24:00,
2013-03-10 16:27:00,39.8,39.8,29.63,North,32767,-999.0,-999.0,100,0.05,,,0.44,Wunderground v.1.15,2013-03-10 21:27:00,
2013-03-10 16:28:00,39.8,39.8,29.63,North,32767,-999.0,-999.0,100,0.05,,,0.44,Wunderground v.1.15,2013-03-10 21:28:00,
2013-03-10 16:29:00,39.8,39.8,29.63,North,32767,-999.0,-999.0,100,0.05,,,0.44,Wunderground v.1.15,2013-03-10 21:29:00,
2013-03-10 16:32:00,39.8,39.8,29.63,North,32767,-999.0,-999.0,100,0.05,,,0.44,Wunderground v.1.15,2013-03-10 21:32:00,
2013-03-10 16:33:00,39.8,39.8,29.63,North,32767,-999.0,-999.0,100,0.05,,,0.44,Wunderground v.1.15,2013-03-10 21:33:00,
2013-03-10 16:34:00,39.8,39.8,29.63,North,32767,-999.0,-999.0,100,0.04,,,0.45,Wunderground v.1.15,2013-03-10 21:34:00,
2013-03-10 16:38:00,39.8,39.8,29.63,North,32767,-999.0,-999.0,100,0.04,,,0.45,Wunderground v.1.15,2013-03-10 21:38:00,
2013-03-10 16:39:00,39.8,39.8,29.63,North,32767,-999.0,-999.0,100,0.04,,,0.45,Wunderground v.1.15,2013-03-10 21:39:00,
2013-03-10 16:43:00,39.8,39.8,29.63,North,32767,-999.0,-999.0,100,0.09,,,0.46,Wunderground v.1.15,2013-03-10 21:43:00,
2013-03-10 16:44:00,39.8,39.8,29.63,North,32767,-999.0,-999.0,100,0.09,,,0.46,Wunderground v.1.15,2013-03-10 21:44:00,
2013-03-10 16:47:00,39.8,39.8,29.63,North,32767,-999.0,-999.0,100,0.08,,,0.46,Wunderground v.1.15,2013-03-10 21:47:00,
2013-03-10 16:49:00,39.8,39.8,29.63,North,32767,-999.0,-999.0,100,0.07,,,0.46,Wunderground v.1.15,2013-03-10 21:49:00,
2013-03-10 16:52:00,39.8,39.8,29.63,North,32767,-999.0,-999.0,100,0.06,,,0.47,Wunderground v.1.15,2013-03-10 21:52:00,
2013-03-10 16:56:00,39.8,39.8,29.67,North,32767,-999.0,-999.0,100,0.26,,,0.49,Wunderground v.1.15,2013-03-10 21:56:00,
2013-03-10 16:57:00,39.8,39.8,29.67,North,32767,-999.0,-999.0,100,0.26,,,0.49,Wunderground v.1.15,2013-03-10 21:57:00,
2013-03-10 16:58:00,39.8,39.8,29.67,North,32767,-999.0,-999.0,100,0.26,,,0.49,Wunderground v.1.15,2013-03-10 21:58:00,
2013-03-10 17:02:00,39.8,39.8,29.67,North,32767,-999.0,-999.0,100,0.17,,,0.50,Wunderground v.1.15,2013-03-10 22:02:00,
2013-03-10 17:03:00,39.8,39.8,29.67,North,32767,-999.0,-999.0,100,0.14,,,0.51,Wunderground v.1.15,2013-03-10 22:03:00,
2013-03-10 17:04:00,39.8,39.8,29.67,North,32767,-999.0,-999.0,100,0.14,,,0.51,Wunderground v.1.15,2013-03-10 22:04:00,
2013-03-10 17:07:00,39.6,39.6,29.67,North,32767,-999.0,-999.0,100,0.19,,,0.52,Wunderground v.1.15,2013-03-10 22:07:00,
2013-03-10 17:08:00,39.6,39.6,29.67,North,32767,-999.0,-999.0,100,0.19,,,0.52,Wunderground v.1.15,2013-03-10 22:08:00,
2013-03-10 17:13:00,39.1,39.1,29.66,North,32767,-999.0,-999.0,100,0.33,,,0.54,Wunderground v.1.15,2013-03-10 22:13:00,
2013-03-10 17:17:00,38.3,38.3,29.66,North,32767,-999.0,-999.0,100,0.13,,,0.55,Wunderground v.1.15,2013-03-10 22:17:00,
2013-03-10 17:18:00,38.2,38.2,29.66,North,32767,-999.0,-999.0,100,0.13,,,0.55,Wunderground v.1.15,2013-03-10 22:18:00,
2013-03-10 17:22:00,37.8,37.8,29.66,North,32767,-999.0,-999.0,100,0.12,,,0.56,Wunderground v.1.15,2013-03-10 22:22:00,
2013-03-10 17:23:00,37.6,37.6,29.66,North,32767,-999.0,-999.0,100,0.12,,,0.56,Wunderground v.1.15,2013-03-10 22:23:00,
2013-03-10 17:24:00,37.5,37.5,29.64,North,32767,-999.0,-999.0,100,0.12,,,0.56,Wunderground v.1.15,2013-03-10 22:24:00,
2013-03-10 17:28:00,37.3,37.3,29.64,North,32767,-999.0,-999.0,100,0.09,,,0.56,Wunderground v.1.15,2013-03-10 22:28:00,
2013-03-10 17:29:00,37.2,37.2,29.64,North,32767,-999.0,-999.0,100,0.07,,,0.56,Wunderground v.1.15,2013-03-10 22:29:00,
2013-03-10 17:32:00,37.0,37.0,29.64,North,32767,-999.0,-999.0,100,0.07,,,0.57,Wunderground v.1.15,2013-03-10 22:32:00,
2013-03-10 17:33:00,37.0,37.0,29.64,North,32767,-999.0,-999.0,100,0.07,,,0.57,Wunderground v.1.15,2013-03-10 22:33:00,
2013-03-10 17:35:00,36.9,36.9,29.64,North,32767,-999.0,-999.0,100,0.07,,,0.57,Wunderground v.1.15,2013-03-10 22:35:00,
2013-03-10 17:37:00,36.8,36.8,29.64,North,32767,-999.0,-999.0,100,0.11,,,0.58,Wunderground v.1.15,2013-03-10 22:37:00,
2013-03-10 17:39:00,36.6,36.6,29.63,North,32767,-999.0,-999.0,100,0.11,,,0.58,Wunderground v.1.15,2013-03-10 22:39:00,
2013-03-10 17:42:00,36.6,36.6,29.63,North,32767,-999.0,-999.0,100,0.11,,,0.59,Wunderground v.1.15,2013-03-10 22:42:00,
2013-03-10 17:43:00,36.6,36.6,29.63,North,32767,-999.0,-999.0,100,0.11,,,0.59,Wunderground v.1.15,2013-03-10 22:43:00,
2013-03-10 17:44:00,36.5,36.5,29.63,North,32767,-999.0,-999.0,100,0.11,,,0.59,Wunderground v.1.15,2013-03-10 22:44:00,
2013-03-10 17:47:00,36.5,36.5,29.63,North,32767,-999.0,-999.0,100,0.13,,,0.60,Wunderground v.1.15,2013-03-10 22:47:00,
2013-03-10 17:48:00,36.5,36.5,29.63,North,32767,-999.0,-999.0,100,0.13,,,0.60,Wunderground v.1.15,2013-03-10 22:48:00,
2013-03-10 17:49:00,36.5,36.5,29.63,North,32767,-999.0,-999.0,100,0.13,,,0.60,Wunderground v.1.15,2013-03-10 22:49:00,
2013-03-10 17:52:00,36.3,36.3,29.63,North,32767,-999.0,-999.0,100,0.12,,,0.61,Wunderground v.1.15,2013-03-10 22:52:00,
2013-03-10 17:53:00,36.3,36.3,29.63,North,32767,-999.0,-999.0,100,0.12,,,0.61,Wunderground v.1.15,2013-03-10 22:53:00,
2013-03-10 17:54:00,36.3,36.3,29.63,North,32767,-999.0,-999.0,100,0.26,,,0.62,Wunderground v.1.15,2013-03-10 22:54:00,
2013-03-10 17:57:00,36.2,36.2,29.63,North,32767,-999.0,-999.0,100,0.16,,,0.63,Wunderground v.1.15,2013-03-10 22:57:00,
2013-03-10 17:58:00,36.2,36.2,29.63,North,32767,-999.0,-999.0,100,0.16,,,0.63,Wunderground v.1.15,2013-03-10 22:58:00,
2013-03-10 17:59:00,36.2,36.2,29.63,North,32767,-999.0,-999.0,100,0.16,,,0.63,Wunderground v.1.15,2013-03-10 22:59:00,
2013-03-10 18:02:00,36.2,36.2,29.63,North,32767,-999.0,-999.0,100,0.11,,,0.63,Wunderground v.1.15,2013-03-10 23:02:00,
2013-03-10 18:03:00,36.2,36.2,29.63,North,32767,-999.0,-999.0,100,0.10,,,0.63,Wunderground v.1.15,2013-03-10 23:03:00,
2013-03-10 18:04:00,36.0,36.0,29.63,North,32767,-999.0,-999.0,100,0.10,,,0.64,Wunderground v.1.15,2013-03-10 23:04:00,
2013-03-10 18:05:00,36.0,36.0,29.63,North,32767,-999.0,-999.0,100,0.10,,,0.64,Wunderground v.1.15,2013-03-10 23:05:00,
2013-03-10 18:08:00,36.0,36.0,29.63,North,32767,-999.0,-999.0,100,0.10,,,0.64,Wunderground v.1.15,2013-03-10 23:08:00,
2013-03-10 18:11:00,36.0,36.0,29.63,North,32767,-999.0,-999.0,100,0.08,,,0.64,Wunderground v.1.15,2013-03-10 23:11:00,
2013-03-10 18:13:00,35.9,35.9,29.63,North,32767,-999.0,-999.0,100,0.06,,,0.64,Wunderground v.1.15,2013-03-10 23:13:00,
2013-03-10 18:14:00,35.9,35.9,29.63,North,32767,-999.0,-999.0,100,0.05,,,0.64,Wunderground v.1.15,2013-03-10 23:14:00,
2013-03-10 18:17:00,35.9,35.9,29.63,North,32767,-999.0,-999.0,100,0.04,,,0.64,Wunderground v.1.15,2013-03-10 23:17:00,
2013-03-10 18:19:00,35.9,35.9,29.63,North,32767,-999.0,-999.0,100,0.04,,,0.64,Wunderground v.1.15,2013-03-10 23:19:00,
2013-03-10 18:22:00,35.9,35.9,29.63,North,32767,-999.0,-999.0,100,0.00,,,0.64,Wunderground v.1.15,2013-03-10 23:22:00,
2013-03-10 18:23:00,35.9,35.9,29.63,North,32767,-999.0,-999.0,100,0.00,,,0.64,Wunderground v.1.15,2013-03-10 23:23:00,
2013-03-10 18:27:00,35.9,35.9,29.61,North,32767,-999.0,-999.0,100,0.00,,,0.65,Wunderground v.1.15,2013-03-10 23:27:00,
2013-03-10 18:28:00,35.9,35.9,29.61,North,32767,-999.0,-999.0,100,0.00,,,0.65,Wunderground v.1.15,2013-03-10 23:28:00,
2013-03-10 18:32:00,35.9,35.9,29.61,North,32767,-999.0,-999.0,100,0.00,,,0.65,Wunderground v.1.15,2013-03-10 23:32:00,
2013-03-10 18:33:00,35.9,35.9,29.61,North,32767,-999.0,-999.0,100,0.00,,,0.65,Wunderground v.1.15,2013-03-10 23:33:00,
2013-03-10 18:34:00,35.9,35.9,29.61,North,32767,-999.0,-999.0,100,0.07,,,0.66,Wunderground v.1.15,2013-03-10 23:34:00,
2013-03-10 18:38:00,35.9,35.9,29.61,North,32767,-999.0,-999.0,100,0.07,,,0.66,Wunderground v.1.15,2013-03-10 23:38:00,
2013-03-10 18:39:00,35.9,35.9,29.61,North,32767,-999.0,-999.0,100,0.07,,,0.66,Wunderground v.1.15,2013-03-10 23:39:00,
2013-03-10 18:43:00,35.9,35.9,29.61,North,32767,-999.0,-999.0,100,0.06,,,0.66,Wunderground v.1.15,2013-03-10 23:43:00,
2013-03-10 18:47:00,35.9,35.9,29.61,North,32767,-999.0,-999.0,100,0.05,,,0.66,Wunderground v.1.15,2013-03-10 23:47:00,
2013-03-10 18:52:00,35.9,35.9,29.61,North,32767,-999.0,-999.0,100,0.00,,,0.66,Wunderground v.1.15,2013-03-10 23:52:00,
2013-03-10 18:54:00,35.9,35.9,29.60,North,32767,-999.0,-999.0,100,0.00,,,0.66,Wunderground v.1.15,2013-03-10 23:54:00,
2013-03-10 18:57:00,35.9,35.9,29.60,North,32767,-999.0,-999.0,100,0.00,,,0.66,Wunderground v.1.15,2013-03-10 23:57:00,
2013-03-10 18:58:00,35.9,35.9,29.60,North,32767,-999.0,-999.0,100,0.00,,,0.66,Wunderground v.1.15,2013-03-10 23:58:00,
2013-03-10 18:59:00,35.9,35.9,29.60,North,32767,-999.0,-999.0,100,0.00,,,0.66,Wunderground v.1.15,2013-03-10 23:59:00,
2013-03-10 19:03:00,35.9,35.9,29.60,North,32767,-999.0,-999.0,100,0.00,,,0.66,Wunderground v.1.15,2013-03-11 00:03:00,
2013-03-10 19:04:00,35.9,35.9,29.60,North,32767,-999.0,-999.0,100,0.00,,,0.66,Wunderground v.1.15,2013-03-11 00:04:00,
2013-03-10 19:08:00,35.9,35.9,29.60,North,32767,-999.0,-999.0,100,0.00,,,0.67,Wunderground v.1.15,2013-03-11 00:08:00,
2013-03-10 19:09:00,35.9,35.9,29.61,North,32767,-999.0,-999.0,100,0.00,,,0.67,Wunderground v.1.15,2013-03-11 00:09:00,
2013-03-10 19:11:00,35.9,35.9,29.61,North,32767,-999.0,-999.0,100,0.00,,,0.67,Wunderground v.1.15,2013-03-11 00:11:00,
2013-03-10 19:13:00,35.9,35.9,29.61,North,32767,-999.0,-999.0,100,0.00,,,0.67,Wunderground v.1.15,2013-03-11 00:13:00,
2013-03-10 19:14:00,35.9,35.9,29.61,North,32767,-999.0,-999.0,100,0.08,,,0.68,Wunderground v.1.15,2013-03-11 00:14:00,
2013-03-10 19:17:00,35.9,35.9,29.61,North,32767,-999.0,-999.0,100,0.08,,,0.68,Wunderground v.1.15,2013-03-11 00:17:00,
2013-03-10 19:22:00,35.9,35.9,29.61,North,32767,-999.0,-999.0,100,0.09,,,0.69,Wunderground v.1.15,2013-03-11 00:22:00,
2013-03-10 19:23:00,35.9,35.9,29.61,North,32767,-999.0,-999.0,100,0.09,,,0.69,Wunderground v.1.15,2013-03-11 00:23:00,
2013-03-10 19:28:00,35.8,35.8,29.59,North,32767,-999.0,-999.0,100,0.09,,,0.69,Wunderground v.1.15,2013-03-11 00:28:00,
2013-03-10 19:33:00,35.9,35.9,29.59,North,32767,-999.0,-999.0,100,0.05,,,0.69,Wunderground v.1.15,2013-03-11 00:33:00,
2013-03-10 19:37:00,35.9,35.9,29.59,North,32767,-999.0,-999.0,100,0.05,,,0.70,Wunderground v.1.15,2013-03-11 00:37:00,
2013-03-10 19:39:00,35.9,35.9,29.59,North,32767,-999.0,-999.0,100,0.05,,,0.70,Wunderground v.1.15,2013-03-11 00:39:00,
2013-03-10 19:40:00,35.9,35.9,29.58,North,32767,-999.0,-999.0,100,0.05,,,0.70,Wunderground v.1.15,2013-03-11 00:40:00,
2013-03-10 19:42:00,35.9,35.9,29.58,North,32767,-999.0,-999.0,100,0.05,,,0.70,Wunderground v.1.15,2013-03-11 00:42:00,
2013-03-10 19:44:00,35.9,35.9,29.58,North,32767,-999.0,-999.0,100,0.05,,,0.70,Wunderground v.1.15,2013-03-11 00:44:00,
2013-03-10 19:47:00,36.0,36.0,29.58,North,32767,-999.0,-999.0,100,0.04,,,0.70,Wunderground v.1.15,2013-03-11 00:47:00,
2013-03-10 19:48:00,36.0,36.0,29.58,North,32767,-999.0,-999.0,100,0.04,,,0.70,Wunderground v.1.15,2013-03-11 00:48:00,
2013-03-10 19:49:00,36.2,36.2,29.58,North,32767,-999.0,-999.0,100,0.04,,,0.70,Wunderground v.1.15,2013-03-11 00:49:00,
2013-03-10 19:52:00,36.2,36.2,29.58,North,32767,-999.0,-999.0,100,0.00,,,0.70,Wunderground v.1.15,2013-03-11 00:52:00,
2013-03-10 19:53:00,36.2,36.2,29.58,North,32767,-999.0,-999.0,100,0.00,,,0.70,Wunderground v.1.15,2013-03-11 00:53:00,
2013-03-10 19:54:00,36.2,36.2,29.58,North,32767,-999.0,-999.0,100,0.00,,,0.70,Wunderground v.1.15,2013-03-11 00:54:00,
2013-03-10 19:58:00,36.2,36.2,29.58,North,32767,-999.0,-999.0,100,0.00,,,0.70,Wunderground v.1.15,2013-03-11 00:58:00,
2013-03-10 19:59:00,36.3,36.3,29.58,North,32767,-999.0,-999.0,100,0.00,,,0.70,Wunderground v.1.15,2013-03-11 00:59:00,
2013-03-10 20:00:00,36.3,36.3,29.58,North,32767,-999.0,-999.0,100,0.00,,,0.70,Wunderground v.1.15,2013-03-11 01:00:00,
2013-03-10 20:03:00,36.3,36.3,29.58,North,32767,-999.0,-999.0,100,0.00,,,0.71,Wunderground v.1.15,2013-03-11 01:03:00,
2013-03-10 20:07:00,36.3,36.3,29.58,North,32767,-999.0,-999.0,100,0.00,,,0.71,Wunderground v.1.15,2013-03-11 01:07:00,
2013-03-10 20:08:00,36.3,36.3,29.58,North,32767,-999.0,-999.0,100,0.00,,,0.71,Wunderground v.1.15,2013-03-11 01:08:00,
2013-03-10 20:12:00,36.3,36.3,29.56,North,32767,-999.0,-999.0,100,0.00,,,0.71,Wunderground v.1.15,2013-03-11 01:12:00,
2013-03-10 20:13:00,36.3,36.3,29.56,North,32767,-999.0,-999.0,100,0.00,,,0.71,Wunderground v.1.15,2013-03-11 01:13:00,
2013-03-10 20:14:00,36.3,36.3,29.56,North,32767,-999.0,-999.0,100,0.05,,,0.72,Wunderground v.1.15,2013-03-11 01:14:00,
2013-03-10 20:17:00,36.3,36.3,29.56,North,32767,-999.0,-999.0,100,0.05,,,0.72,Wunderground v.1.15,2013-03-11 01:17:00,
2013-03-10 20:18:00,36.3,36.3,29.56,North,32767,-999.0,-999.0,100,0.05,,,0.72,Wunderground v.1.15,2013-03-11 01:18:00,
2013-03-10 20:19:00,36.3,36.3,29.56,North,32767,-999.0,-999.0,100,0.05,,,0.72,Wunderground v.1.15,2013-03-11 01:19:00,
2013-03-10 20:20:00,36.3,36.3,29.56,North,32767,-999.0,-999.0,100,0.05,,,0.72,Wunderground v.1.15,2013-03-11 01:20:00,
2013-03-10 20:23:00,36.3,36.3,29.56,North,32767,-999.0,-999.0,100,0.05,,,0.72,Wunderground v.1.15,2013-03-11 01:23:00,
2013-03-10 20:24:00,36.3,36.3,29.56,North,32767,-999.0,-999.0,100,0.05,,,0.72,Wunderground v.1.15,2013-03-11 01:24:00,
2013-03-10 20:27:00,36.3,36.3,29.56,North,32767,-999.0,-999.0,100,0.04,,,0.72,Wunderground v.1.15,2013-03-11 01:27:00,
2013-03-10 20:28:00,36.3,36.3,29.56,North,32767,-999.0,-999.0,100,0.04,,,0.72,Wunderground v.1.15,2013-03-11 01:28:00,
2013-03-10 20:29:00,36.3,36.3,29.56,North,32767,-999.0,-999.0,100,0.04,,,0.72,Wunderground v.1.15,2013-03-11 01:29:00,
2013-03-10 20:32:00,36.3,36.3,29.56,North,32767,-999.0,-999.0,100,0.00,,,0.72,Wunderground v.1.15,2013-03-11 01:32:00,
2013-03-10 20:33:00,36.3,36.3,29.56,North,32767,-999.0,-999.0,100,0.00,,,0.72,Wunderground v.1.15,2013-03-11 01:33:00,
2013-03-10 20:37:00,36.2,36.2,29.56,North,32767,-999.0,-999.0,100,0.00,,,0.72,Wunderground v.1.15,2013-03-11 01:37:00,
2013-03-10 20:38:00,36.2,36.2,29.56,North,32767,-999.0,-999.0,100,0.00,,,0.72,Wunderground v.1.15,2013-03-11 01:38:00,
2013-03-10 20:42:00,36.2,36.2,29.55,North,32767,-999.0,-999.0,100,0.00,,,0.73,Wunderground v.1.15,2013-03-11 01:42:00,
2013-03-10 20:43:00,36.2,36.2,29.55,North,32767,-999.0,-999.0,100,0.00,,,0.73,Wunderground v.1.15,2013-03-11 01:43:00,
2013-03-10 20:45:00,36.2,36.2,29.55,North,32767,-999.0,-999.0,100,0.00,,,0.73,Wunderground v.1.15,2013-03-11 01:45:00,
2013-03-10 20:47:00,36.0,36.0,29.55,North,32767,-999.0,-999.0,100,0.10,,,0.74,Wunderground v.1.15,2013-03-11 01:47:00,
2013-03-10 20:48:00,36.2,36.2,29.55,North,32767,-999.0,-999.0,100,0.10,,,0.74,Wunderground v.1.15,2013-03-11 01:48:00,
2013-03-10 20:49:00,36.2,36.2,29.55,North,32767,-999.0,-999.0,100,0.10,,,0.74,Wunderground v.1.15,2013-03-11 01:49:00,
2013-03-10 20:53:00,36.0,36.0,29.55,North,32767,-999.0,-999.0,100,0.08,,,0.74,Wunderground v.1.15,2013-03-11 01:53:00,
2013-03-10 20:54:00,36.2,36.2,29.55,North,32767,-999.0,-999.0,100,0.07,,,0.74,Wunderground v.1.15,2013-03-11 01:54:00,
2013-03-10 20:57:00,36.2,36.2,29.55,North,32767,-999.0,-999.0,100,0.05,,,0.74,Wunderground v.1.15,2013-03-11 01:57:00,
2013-03-10 20:58:00,36.2,36.2,29.55,North,32767,-999.0,-999.0,100,0.05,,,0.74,Wunderground v.1.15,2013-03-11 01:58:00,
2013-03-10 20:59:00,36.2,36.2,29.55,North,32767,-999.0,-999.0,100,0.05,,,0.74,Wunderground v.1.15,2013-03-11 01:59:00,
2013-03-10 21:02:00,36.2,36.2,29.55,North,32767,-999.0,-999.0,100,0.00,,,0.74,Wunderground v.1.15,2013-03-11 02:02:00,
2013-03-10 21:04:00,36.2,36.2,29.55,North,32767,-999.0,-999.0,100,0.00,,,0.74,Wunderground v.1.15,2013-03-11 02:04:00,
2013-03-10 21:07:00,36.2,36.2,29.55,North,32767,-999.0,-999.0,100,0.00,,,0.74,Wunderground v.1.15,2013-03-11 02:07:00,
2013-03-10 21:08:00,36.2,36.2,29.55,North,32767,-999.0,-999.0,100,0.00,,,0.74,Wunderground v.1.15,2013-03-11 02:08:00,
2013-03-10 21:10:00,36.3,36.3,29.56,North,32767,-999.0,-999.0,100,0.00,,,0.74,Wunderground v.1.15,2013-03-11 02:10:00,
2013-03-10 21:12:00,36.3,36.3,29.56,North,32767,-999.0,-999.0,100,0.00,,,0.74,Wunderground v.1.15,2013-03-11 02:12:00,
2013-03-10 21:13:00,36.3,36.3,29.56,North,32767,-999.0,-999.0,100,0.00,,,0.75,Wunderground v.1.15,2013-03-11 02:13:00,
2013-03-10 21:14:00,36.5,36.5,29.56,North,32767,-999.0,-999.0,100,0.00,,,0.75,Wunderground v.1.15,2013-03-11 02:14:00,
2013-03-10 21:17:00,36.3,36.3,29.56,North,32767,-999.0,-999.0,100,0.00,,,0.75,Wunderground v.1.15,2013-03-11 02:17:00,
2013-03-10 21:19:00,36.2,36.2,29.56,North,32767,-999.0,-999.0,100,0.09,,,0.76,Wunderground v.1.15,2013-03-11 02:19:00,
2013-03-10 21:22:00,36.3,36.3,29.56,North,32767,-999.0,-999.0,100,0.09,,,0.76,Wunderground v.1.15,2013-03-11 02:22:00,
2013-03-10 21:23:00,36.3,36.3,29.56,North,32767,-999.0,-999.0,100,0.09,,,0.76,Wunderground v.1.15,2013-03-11 02:23:00,
2013-03-10 21:24:00,36.3,36.3,29.55,North,32767,-999.0,-999.0,100,0.09,,,0.76,Wunderground v.1.15,2013-03-11 02:24:00,
2013-03-10 21:27:00,36.5,36.5,29.55,North,32767,-999.0,-999.0,100,0.07,,,0.76,Wunderground v.1.15,2013-03-11 02:27:00,
2013-03-10 21:28:00,36.5,36.5,29.55,North,32767,-999.0,-999.0,100,0.06,,,0.76,Wunderground v.1.15,2013-03-11 02:28:00,
2013-03-10 21:29:00,36.5,36.5,29.55,North,32767,-999.0,-999.0,100,0.06,,,0.76,Wunderground v.1.15,2013-03-11 02:29:00,
2013-03-10 21:32:00,36.6,36.6,29.55,North,32767,-999.0,-999.0,100,0.05,,,0.76,Wunderground v.1.15,2013-03-11 02:32:00,
2013-03-10 21:33:00,36.6,36.6,29.55,North,32767,-999.0,-999.0,100,0.04,,,0.76,Wunderground v.1.15,2013-03-11 02:33:00,
2013-03-10 21:34:00,36.8,36.8,29.55,North,32767,-999.0,-999.0,100,0.04,,,0.76,Wunderground v.1.15,2013-03-11 02:34:00,
2013-03-10 21:37:00,36.9,36.9,29.55,North,32767,-999.0,-999.0,100,0.00,,,0.76,Wunderground v.1.15,2013-03-11 02:37:00,
2013-03-10 21:39:00,37.0,37.0,29.54,North,32767,-999.0,-999.0,100,0.00,,,0.76,Wunderground v.1.15,2013-03-11 02:39:00,
2013-03-10 21:42:00,37.0,37.0,29.54,North,32767,-999.0,-999.0,100,0.00,,,0.76,Wunderground v.1.15,2013-03-11 02:42:00,
2013-03-10 21:47:00,37.0,37.0,29.54,North,32767,-999.0,-999.0,100,0.00,,,0.76,Wunderground v.1.15,2013-03-11 02:47:00,
2013-03-10 21:48:00,37.0,37.0,29.54,North,32767,-999.0,-999.0,100,0.00,,,0.76,Wunderground v.1.15,2013-03-11 02:48:00,
2013-03-10 21:49:00,37.0,37.0,29.54,North,32767,-999.0,-999.0,100,0.00,,,0.76,Wunderground v.1.15,2013-03-11 02:49:00,
2013-03-10 21:52:00,37.0,37.0,29.54,North,32767,-999.0,-999.0,100,0.00,,,0.76,Wunderground v.1.15,2013-03-11 02:52:00,
2013-03-10 21:53:00,37.0,37.0,29.54,North,32767,-999.0,-999.0,100,0.00,,,0.76,Wunderground v.1.15,2013-03-11 02:53:00,
2013-03-10 21:55:00,37.0,37.0,29.53,North,32767,-999.0,-999.0,100,0.00,,,0.76,Wunderground v.1.15,2013-03-11 02:55:00,
2013-03-10 21:56:00,37.0,37.0,29.53,North,32767,-999.0,-999.0,100,0.00,,,0.76,Wunderground v.1.15,2013-03-11 02:56:00,
2013-03-10 21:57:00,37.0,37.0,29.53,North,32767,-999.0,-999.0,100,0.00,,,0.76,Wunderground v.1.15,2013-03-11 02:57:00,
2013-03-10 21:59:00,37.0,37.0,29.53,North,32767,-999.0,-999.0,100,0.00,,,0.76,Wunderground v.1.15,2013-03-11 02:59:00,
2013-03-10 22:02:00,36.9,36.9,29.53,North,32767,-999.0,-999.0,100,0.00,,,0.76,Wunderground v.1.15,2013-03-11 03:02:00,
2013-03-10 22:03:00,37.0,37.0,29.53,North,32767,-999.0,-999.0,100,0.00,,,0.76,Wunderground v.1.15,2013-03-11 03:03:00,
2013-03-10 22:04:00,37.0,37.0,29.53,North,32767,-999.0,-999.0,100,0.00,,,0.76,Wunderground v.1.15,2013-03-11 03:04:00,
2013-03-10 22:09:00,36.9,36.9,29.53,North,32767,-999.0,-999.0,100,0.00,,,0.76,Wunderground v.1.15,2013-03-11 03:09:00,
2013-03-10 22:12:00,36.9,36.9,29.53,North,32767,-999.0,-999.0,100,0.00,,,0.76,Wunderground v.1.15,2013-03-11 03:12:00,
2013-03-10 22:17:00,36.8,36.8,29.53,North,32767,-999.0,-999.0,100,0.00,,,0.76,Wunderground v.1.15,2013-03-11 03:17:00,
2013-03-10 22:18:00,36.8,36.8,29.53,North,32767,-999.0,-999.0,100,0.00,,,0.76,Wunderground v.1.15,2013-03-11 03:18:00,
2013-03-10 22:22:00,36.8,36.8,29.53,North,32767,-999.0,-999.0,100,0.00,,,0.76,Wunderground v.1.15,2013-03-11 03:22:00,
2013-03-10 22:24:00,36.8,36.8,29.53,North,32767,-999.0,-999.0,100,0.00,,,0.76,Wunderground v.1.15,2013-03-11 03:24:00,
2013-03-10 22:28:00,36.8,36.8,29.53,North,32767,-999.0,-999.0,100,0.00,,,0.76,Wunderground v.1.15,2013-03-11 03:28:00,
2013-03-10 22:29:00,36.8,36.8,29.53,North,32767,-999.0,-999.0,100,0.00,,,0.76,Wunderground v.1.15,2013-03-11 03:29:00,
2013-03-10 22:30:00,36.8,36.8,29.53,North,32767,-999.0,-999.0,100,0.00,,,0.76,Wunderground v.1.15,2013-03-11 03:30:00,
2013-03-10 22:32:00,36.6,36.6,29.53,North,32767,-999.0,-999.0,100,0.00,,,0.76,Wunderground v.1.15,2013-03-11 03:32:00,
2013-03-10 22:33:00,36.6,36.6,29.53,North,32767,-999.0,-999.0,100,0.00,,,0.76,Wunderground v.1.15,2013-03-11 03:33:00,
2013-03-10 22:37:00,36.6,36.6,29.53,North,32767,-999.0,-999.0,100,0.00,,,0.76,Wunderground v.1.15,2013-03-11 03:37:00,
2013-03-10 22:38:00,36.6,36.6,29.53,North,32767,-999.0,-999.0,100,0.00,,,0.76,Wunderground v.1.15,2013-03-11 03:38:00,
2013-03-10 22:43:00,36.6,36.6,29.53,North,32767,-999.0,-999.0,100,0.00,,,0.76,Wunderground v.1.15,2013-03-11 03:43:00,
2013-03-10 22:44:00,36.6,36.6,29.53,North,32767,-999.0,-999.0,100,0.00,,,0.76,Wunderground v.1.15,2013-03-11 03:44:00,
2013-03-10 22:49:00,36.6,36.6,29.53,North,32767,-999.0,-999.0,100,0.00,,,0.76,Wunderground v.1.15,2013-03-11 03:49:00,
2013-03-10 22:52:00,36.6,36.6,29.53,North,32767,-999.0,-999.0,100,0.00,,,0.76,Wunderground v.1.15,2013-03-11 03:52:00,
2013-03-10 22:53:00,36.8,36.8,29.53,North,32767,-999.0,-999.0,100,0.00,,,0.76,Wunderground v.1.15,2013-03-11 03:53:00,
2013-03-10 22:54:00,36.8,36.8,29.54,North,32767,-999.0,-999.0,100,0.00,,,0.76,Wunderground v.1.15,2013-03-11 03:54:00,
2013-03-10 22:57:00,36.8,36.8,29.54,North,32767,-999.0,-999.0,100,0.00,,,0.76,Wunderground v.1.15,2013-03-11 03:57:00,
2013-03-10 22:58:00,36.8,36.8,29.54,North,32767,-999.0,-999.0,100,0.00,,,0.76,Wunderground v.1.15,2013-03-11 03:58:00,
2013-03-10 23:00:00,36.8,36.8,29.54,North,32767,-999.0,-999.0,100,0.00,,,0.76,Wunderground v.1.15,2013-03-11 04:00:00,
2013-03-10 23:02:00,36.8,36.8,29.54,North,32767,-999.0,-999.0,100,0.00,,,0.76,Wunderground v.1.15,2013-03-11 04:02:00,
2013-03-10 23:07:00,36.6,36.6,29.54,North,32767,-999.0,-999.0,100,0.00,,,0.76,Wunderground v.1.15,2013-03-11 04:07:00,
2013-03-10 23:08:00,36.8,36.8,29.54,North,32767,-999.0,-999.0,100,0.00,,,0.76,Wunderground v.1.15,2013-03-11 04:08:00,
2013-03-10 23:09:00,36.8,36.8,29.54,North,32767,-999.0,-999.0,100,0.00,,,0.76,Wunderground v.1.15,2013-03-11 04:09:00,
2013-03-10 23:12:00,36.6,36.6,29.54,North,32767,-999.0,-999.0,100,0.00,,,0.76,Wunderground v.1.15,2013-03-11 04:12:00,
2013-03-10 23:13:00,36.6,36.6,29.54,North,32767,-999.0,-999.0,100,0.00,,,0.76,Wunderground v.1.15,2013-03-11 04:13:00,
2013-03-10 23:14:00,36.8,36.8,29.54,North,32767,-999.0,-999.0,100,0.00,,,0.76,Wunderground v.1.15,2013-03-11 04:14:00,
2013-03-10 23:18:00,36.6,36.6,29.54,North,32767,-999.0,-999.0,100,0.00,,,0.76,Wunderground v.1.15,2013-03-11 04:18:00,
2013-03-10 23:19:00,36.6,36.6,29.54,North,32767,-999.0,-999.0,100,0.00,,,0.77,Wunderground v.1.15,2013-03-11 04:19:00,
2013-03-10 23:24:00,36.6,36.6,29.53,North,32767,-999.0,-999.0,100,0.00,,,0.77,Wunderground v.1.15,2013-03-11 04:24:00,
2013-03-10 23:27:00,36.6,36.6,29.53,North,32767,-999.0,-999.0,100,0.00,,,0.77,Wunderground v.1.15,2013-03-11 04:27:00,
2013-03-10 23:29:00,36.6,36.6,29.53,North,32767,-999.0,-999.0,100,0.00,,,0.77,Wunderground v.1.15,2013-03-11 04:29:00,
2013-03-10 23:32:00,36.6,36.6,29.53,North,32767,-999.0,-999.0,100,0.00,,,0.77,Wunderground v.1.15,2013-03-11 04:32:00,
2013-03-10 23:33:00,36.6,36.6,29.53,North,32767,-999.0,-999.0,100,0.00,,,0.77,Wunderground v.1.15,2013-03-11 04:33:00,
2013-03-10 23:34:00,36.6,36.6,29.53,North,32767,-999.0,-999.0,100,0.00,,,0.77,Wunderground v.1.15,2013-03-11 04:34:00,
2013-03-10 23:38:00,36.6,36.6,29.53,North,32767,-999.0,-999.0,100,0.00,,,0.77,Wunderground v.1.15,2013-03-11 04:38:00,
2013-03-10 23:42:00,36.6,36.6,29.53,North,32767,-999.0,-999.0,100,0.00,,,0.77,Wunderground v.1.15,2013-03-11 04:42:00,
2013-03-10 23:43:00,36.6,36.6,29.53,North,32767,-999.0,-999.0,100,0.00,,,0.77,Wunderground v.1.15,2013-03-11 04:43:00,
2013-03-10 23:44:00,36.6,36.6,29.53,North,32767,-999.0,-999.0,100,0.00,,,0.77,Wunderground v.1.15,2013-03-11 04:44:00,
2013-03-10 23:47:00,36.8,36.8,29.53,North,32767,-999.0,-999.0,100,0.00,,,0.77,Wunderground v.1.15,2013-03-11 04:47:00,
2013-03-10 23:49:00,36.8,36.8,29.53,North,32767,-999.0,-999.0,100,0.00,,,0.77,Wunderground v.1.15,2013-03-11 04:49:00,
2013-03-10 23:52:00,36.8,36.8,29.53,North,32767,-999.0,-999.0,100,0.00,,,0.77,Wunderground v.1.15,2013-03-11 04:52:00,
2013-03-10 23:54:00,36.9,36.9,29.53,North,32767,-999.0,-999.0,100,0.00,,,0.77,Wunderground v.1.15,2013-03-11 04:54:00,
2013-03-10 23:57:00,36.8,36.8,29.53,North,32767,-999.0,-999.0,100,0.00,,,0.77,Wunderground v.1.15,2013-03-11 04:57:00,
2013-03-10 23:59:00,36.8,36.8,29.53,North,32767,-999.0,-999.0,100,0.00,,,0.77,Wunderground v.1.15,2013-03-11 04:59:00,